Time,TemperatureF,DewpointF,PressureIn,WindDirection,WindDirectionDegrees,WindSpeedMPH,WindSpeedGustMPH,Humidity,HourlyPrecipIn,Conditions,Clouds,dailyrainin,SolarRadiationWatts/m^2,SoftwareType,DateUTC
2013-01-04 00:00:00,45.1,2.8,30.16,ESE,105,1.1,6.9,17,0.00,CLR,FEW,0.00,0.0,WeatherDisplay:10.37,2013-01-04 08:00:00,
2013-01-04 00:01:00,45.1,4.0,30.16,East,95,0.0,2.6,18,0.00,CLR,FEW,0.00,0.0,WeatherDisplay:10.37,2013-01-04 08:01:00,
2013-01-04 00:02:00,45.1,2.8,30.16,ESE,103,4.2,11.5,17,0.00,CLR,FEW,0.00,0.0,WeatherDisplay:10.37,2013-01-04 08:02:00,
2013-01-04 00:05:00,45.1,4.0,30.16,ESE,122,6.5,10.4,18,0.00,CLR,FEW,0.00,0.0,WeatherDisplay:10.37,2013-01-04 08:05:00,
2013-01-04 00:06:00,45.1,2.8,30.16,East,100,7.7,11.5,17,0.00,CLR,FEW,0.00,0.0,WeatherDisplay:10.37,2013-01-04 08:06:00,
2013-01-04 00:07:00,45.1,2.8,30.16,ESE,102,5.3,10.4,17,0.00,CLR,FEW,0.00,0.0,WeatherDisplay:10.37,2013-01-04 08:07:00,
2013-01-04 00:08:00,45.1,4.0,30.16,ESE,103,4.6,10.4,18,0.00,CLR,FEW,0.00,0.0,WeatherDisplay:10.37,2013-01-04 08:08:00,
2013-01-04 00:10:00,45.2,2.9,30.16,ESE,111,4.7,9.2,17,0.00,CLR,FEW,0.00,0.0,WeatherDisplay:10.37,2013-01-04 08:10:00,
2013-01-04 00:12:00,45.2,2.9,30.16,ESE,106,7.3,10.4,17,0.00,CLR,FEW,0.00,0.0,WeatherDisplay:10.37,2013-01-04 08:12:00,
2013-01-04 00:13:00,45.2,4.1,30.16,ESE,113,0.7,10.4,18,0.00,CLR,FEW,0.00,0.0,WeatherDisplay:10.37,2013-01-04 08:13:00,
2013-01-04 00:14:00,45.2,2.9,30.16,ESE,116,6.5,12.7,17,0.00,CLR,FEW,0.00,0.0,WeatherDisplay:10.37,2013-01-04 08:14:00,
2013-01-04 00:15:00,45.2,4.1,30.16,ESE,104,1.3,12.7,18,0.00,CLR,FEW,0.00,0.0,WeatherDisplay:10.37,2013-01-04 08:15:00,
2013-01-04 00:18:00,45.1,4.0,30.16,ESE,109,3.9,9.2,18,0.00,CLR,FEW,0.00,0.0,WeatherDisplay:10.37,2013-01-04 08:18:00,
2013-01-04 00:19:00,44.9,3.9,30.16,East,100,1.4,9.2,18,0.00,CLR,FEW,0.00,0.0,WeatherDisplay:10.37,2013-01-04 08:19:00,
2013-01-04 00:21:00,44.9,3.9,30.16,ESE,105,2.1,6.9,18,0.00,CLR,FEW,0.00,0.0,WeatherDisplay:10.37,2013-01-04 08:21:00,
2013-01-04 00:23:00,44.8,3.8,30.16,East,95,0.0,0.0,18,0.00,CLR,FEW,0.00,0.0,WeatherDisplay:10.37,2013-01-04 08:23:00,
2013-01-04 00:24:00,44.6,4.8,30.16,East,90,1.5,6.5,19,0.00,CLR,FEW,0.00,0.0,WeatherDisplay:10.37,2013-01-04 08:24:00,
2013-01-04 00:26:00,44.6,3.6,30.16,ESE,118,1.4,6.9,18,0.00,CLR,FEW,0.00,0.0,WeatherDisplay:10.37,2013-01-04 08:26:00,
2013-01-04 00:28:00,44.6,3.6,30.16,East,99,1.3,6.9,18,0.00,CLR,FEW,0.00,0.0,WeatherDisplay:10.37,2013-01-04 08:28:00,
2013-01-04 00:29:00,44.6,3.6,30.16,SE,124,0.6,2.6,18,0.00,CLR,FEW,0.00,0.0,WeatherDisplay:10.37,2013-01-04 08:29:00,
2013-01-04 00:31:00,44.5,4.7,30.16,East,86,0.6,6.5,19,0.00,CLR,FEW,0.00,0.0,WeatherDisplay:10.37,2013-01-04 08:31:00,
2013-01-04 00:33:00,44.3,4.6,30.16,East,94,3.9,9.1,19,0.00,CLR,FEW,0.00,0.0,WeatherDisplay:10.37,2013-01-04 08:33:00,
2013-01-04 00:34:00,44.3,4.6,30.16,East,98,1.8,9.2,19,0.00,CLR,FEW,0.00,0.0,WeatherDisplay:10.37,2013-01-04 08:34:00,
2013-01-04 00:36:00,44.2,4.5,30.16,ESE,105,0.2,2.3,19,0.00,CLR,FEW,0.00,0.0,WeatherDisplay:10.37,2013-01-04 08:36:00,
2013-01-04 00:38:00,44.2,4.5,30.16,East,91,2.5,9.1,19,0.00,CLR,FEW,0.00,0.0,WeatherDisplay:10.37,2013-01-04 08:38:00,
2013-01-04 00:41:00,44.2,4.5,30.16,East,96,0.9,2.3,19,0.00,CLR,FEW,0.00,0.0,WeatherDisplay:10.37,2013-01-04 08:41:00,
2013-01-04 00:43:00,44.3,4.6,30.16,ESE,109,2.1,6.9,19,0.00,CLR,FEW,0.00,0.0,WeatherDisplay:10.37,2013-01-04 08:43:00,
2013-01-04 00:44:00,44.5,4.7,30.16,ESE,112,3.9,9.1,19,0.00,CLR,FEW,0.00,0.0,WeatherDisplay:10.37,2013-01-04 08:44:00,
2013-01-04 00:47:00,44.6,3.6,30.16,ESE,121,1.0,3.5,18,0.00,CLR,FEW,0.00,0.0,WeatherDisplay:10.37,2013-01-04 08:47:00,
2013-01-04 00:48:00,44.9,3.9,30.16,East,95,0.1,9.2,18,0.00,CLR,FEW,0.00,0.0,WeatherDisplay:10.37,2013-01-04 08:48:00,
2013-01-04 00:50:00,44.9,3.9,30.16,East,96,2.4,6.9,18,0.00,CLR,FEW,0.00,0.0,WeatherDisplay:10.37,2013-01-04 08:50:00,
2013-01-04 00:53:00,44.9,3.9,30.16,East,98,0.0,0.0,18,0.00,CLR,FEW,0.00,0.0,WeatherDisplay:10.37,2013-01-04 08:53:00,
2013-01-04 00:54:00,44.8,3.8,30.16,East,95,1.0,3.9,18,0.00,CLR,FEW,0.00,0.0,WeatherDisplay:10.37,2013-01-04 08:54:00,
2013-01-04 00:55:00,44.9,3.9,30.16,SE,128,1.0,5.8,18,0.00,CLR,FEW,0.00,0.0,WeatherDisplay:10.37,2013-01-04 08:55:00,
2013-01-04 00:58:00,44.9,3.9,30.16,East,88,1.0,6.5,18,0.00,CLR,FEW,0.00,0.0,WeatherDisplay:10.37,2013-01-04 08:58:00,
2013-01-04 00:59:00,44.8,3.8,30.16,ESE,111,2.1,6.9,18,0.00,CLR,FEW,0.00,0.0,WeatherDisplay:10.37,2013-01-04 08:59:00,
2013-01-04 01:00:00,44.8,3.8,30.16,ESE,115,1.0,2.3,18,0.00,CLR,FEW,0.00,0.0,WeatherDisplay:10.37,2013-01-04 09:00:00,
2013-01-04 01:03:00,44.9,3.9,30.16,ESE,105,0.4,3.5,18,0.00,CLR,FEW,0.00,0.0,WeatherDisplay:10.37,2013-01-04 09:03:00,
2013-01-04 01:04:00,45.1,4.0,30.16,East,99,0.0,1.1,18,0.00,CLR,FEW,0.00,0.0,WeatherDisplay:10.37,2013-01-04 09:04:00,
2013-01-04 01:05:00,45.1,4.0,30.16,ESE,104,0.0,1.1,18,0.00,CLR,FEW,0.00,0.0,WeatherDisplay:10.37,2013-01-04 09:05:00,
2013-01-04 01:06:00,45.2,4.1,30.16,East,84,4.9,8.1,18,0.00,CLR,FEW,0.00,0.0,WeatherDisplay:10.37,2013-01-04 09:06:00,
2013-01-04 01:09:00,45.2,4.1,30.16,East,99,0.9,6.9,18,0.00,CLR,FEW,0.00,0.0,WeatherDisplay:10.37,2013-01-04 09:09:00,
2013-01-04 01:10:00,45.2,4.1,30.16,ESE,109,0.0,6.9,18,0.00,CLR,FEW,0.00,0.0,WeatherDisplay:10.37,2013-01-04 09:10:00,
2013-01-04 01:11:00,45.1,4.0,30.16,East,87,0.0,0.0,18,0.00,CLR,FEW,0.00,0.0,WeatherDisplay:10.37,2013-01-04 09:11:00,
2013-01-04 01:15:00,44.8,3.8,30.16,East,96,0.0,0.0,18,0.00,CLR,FEW,0.00,0.0,WeatherDisplay:10.37,2013-01-04 09:15:00,
2013-01-04 01:16:00,44.6,4.8,30.16,East,89,0.8,0.0,19,0.00,CLR,FEW,0.00,0.0,WeatherDisplay:10.37,2013-01-04 09:16:00,
2013-01-04 01:17:00,44.3,4.6,30.16,ESE,119,1.5,9.2,19,0.00,CLR,FEW,0.00,0.0,WeatherDisplay:10.37,2013-01-04 09:17:00,
2013-01-04 01:18:00,44.3,4.6,30.16,East,91,0.0,9.2,19,0.00,CLR,FEW,0.00,0.0,WeatherDisplay:10.37,2013-01-04 09:18:00,
2013-01-04 01:21:00,43.8,5.3,30.16,SE,125,3.4,10.4,20,0.00,CLR,FEW,0.00,0.0,WeatherDisplay:10.37,2013-01-04 09:21:00,
2013-01-04 01:22:00,43.6,4.0,30.16,ESE,118,2.8,6.9,19,0.00,CLR,FEW,0.00,0.0,WeatherDisplay:10.37,2013-01-04 09:22:00,
2013-01-04 01:23:00,43.6,5.1,30.16,ESE,119,1.8,6.9,20,0.00,CLR,FEW,0.00,0.0,WeatherDisplay:10.37,2013-01-04 09:23:00,
2013-01-04 01:25:00,43.5,5.0,30.16,ESE,109,2.0,0.0,20,0.00,CLR,FEW,0.00,0.0,WeatherDisplay:10.37,2013-01-04 09:25:00,
2013-01-04 01:26:00,43.5,5.0,30.16,ESE,117,2.2,5.8,20,0.00,CLR,FEW,0.00,0.0,WeatherDisplay:10.37,2013-01-04 09:26:00,
2013-01-04 01:28:00,43.6,4.0,30.16,ESE,102,1.0,5.8,19,0.00,CLR,FEW,0.00,0.0,WeatherDisplay:10.37,2013-01-04 09:28:00,
2013-01-04 01:31:00,43.5,3.9,30.16,ESE,119,0.0,0.0,19,0.00,CLR,FEW,0.00,0.0,WeatherDisplay:10.37,2013-01-04 09:31:00,
2013-01-04 01:33:00,43.6,4.0,30.16,East,100,2.7,9.2,19,0.00,CLR,FEW,0.00,0.0,WeatherDisplay:10.37,2013-01-04 09:33:00,
2013-01-04 01:35:00,43.8,4.1,30.16,ESE,109,3.5,8.1,19,0.00,CLR,FEW,0.00,0.0,WeatherDisplay:10.37,2013-01-04 09:35:00,
2013-01-04 01:36:00,43.8,4.1,30.16,SE,126,4.6,8.1,19,0.00,CLR,FEW,0.00,0.0,WeatherDisplay:10.37,2013-01-04 09:36:00,
2013-01-04 01:38:00,43.8,4.1,30.16,ESE,121,0.8,1.3,19,0.00,CLR,FEW,0.00,0.0,WeatherDisplay:10.37,2013-01-04 09:38:00,
2013-01-04 01:41:00,43.6,4.0,30.16,SE,124,1.8,6.9,19,0.00,CLR,FEW,0.00,0.0,WeatherDisplay:10.37,2013-01-04 09:41:00,
2013-01-04 01:43:00,43.6,4.0,30.16,East,88,0.0,0.0,19,0.00,CLR,FEW,0.00,0.0,WeatherDisplay:10.37,2013-01-04 09:43:00,
2013-01-04 01:44:00,43.5,3.9,30.16,ESE,117,0.0,0.0,19,0.00,CLR,FEW,0.00,0.0,WeatherDisplay:10.37,2013-01-04 09:44:00,
2013-01-04 01:46:00,43.6,4.0,30.16,East,89,0.1,2.3,19,0.00,CLR,FEW,0.00,0.0,WeatherDisplay:10.37,2013-01-04 09:46:00,
2013-01-04 01:48:00,43.6,4.0,30.16,East,82,0.9,10.4,19,0.00,CLR,FEW,0.00,0.0,WeatherDisplay:10.37,2013-01-04 09:48:00,
2013-01-04 01:49:00,43.8,4.1,30.16,East,81,5.4,10.4,19,0.00,CLR,FEW,0.00,0.0,WeatherDisplay:10.37,2013-01-04 09:49:00,
2013-01-04 01:51:00,43.9,4.2,30.16,ESE,109,0.0,6.9,19,0.00,CLR,FEW,0.00,0.0,WeatherDisplay:10.37,2013-01-04 09:51:00,
2013-01-04 01:53:00,44.1,3.2,30.16,ESE,122,4.1,8.1,18,0.00,CLR,FEW,0.00,0.0,WeatherDisplay:10.37,2013-01-04 09:53:00,
2013-01-04 01:54:00,44.2,3.3,30.16,East,88,1.4,7.8,18,0.00,CLR,FEW,0.00,0.0,WeatherDisplay:10.37,2013-01-04 09:54:00,
2013-01-04 01:56:00,44.2,3.3,30.16,ESE,103,3.6,9.2,18,0.00,CLR,FEW,0.00,0.0,WeatherDisplay:10.37,2013-01-04 09:56:00,
2013-01-04 01:59:00,44.2,3.3,30.16,East,94,0.0,0.0,18,0.00,CLR,FEW,0.00,0.0,WeatherDisplay:10.37,2013-01-04 09:59:00,
2013-01-04 02:01:00,44.2,3.3,30.16,ESE,121,1.9,6.9,18,0.00,CLR,FEW,0.00,0.0,WeatherDisplay:10.37,2013-01-04 10:01:00,
2013-01-04 02:05:00,44.5,2.3,30.16,ESE,103,1.0,11.5,17,0.00,CLR,FEW,0.00,0.0,WeatherDisplay:10.37,2013-01-04 10:05:00,
2013-01-04 02:06:00,44.3,3.4,30.16,ESE,111,0.4,6.9,18,0.00,CLR,FEW,0.00,0.0,WeatherDisplay:10.37,2013-01-04 10:06:00,
2013-01-04 02:07:00,44.3,3.4,30.16,East,91,3.7,6.9,18,0.00,CLR,FEW,0.00,0.0,WeatherDisplay:10.37,2013-01-04 10:07:00,
2013-01-04 02:10:00,44.2,3.3,30.16,ESE,107,0.1,3.9,18,0.00,CLR,FEW,0.00,0.0,WeatherDisplay:10.37,2013-01-04 10:10:00,
2013-01-04 02:11:00,44.2,3.3,30.16,SE,126,1.7,3.5,18,0.00,CLR,FEW,0.00,0.0,WeatherDisplay:10.37,2013-01-04 10:11:00,
2013-01-04 02:12:00,44.2,2.1,30.16,East,92,1.0,3.5,17,0.00,CLR,FEW,0.00,0.0,WeatherDisplay:10.37,2013-01-04 10:12:00,
2013-01-04 02:15:00,44.3,2.1,30.16,ESE,103,0.0,0.0,17,0.00,CLR,FEW,0.00,0.0,WeatherDisplay:10.37,2013-01-04 10:15:00,
2013-01-04 02:16:00,44.3,2.1,30.16,ESE,117,0.0,0.0,17,0.00,CLR,FEW,0.00,0.0,WeatherDisplay:10.37,2013-01-04 10:16:00,
2013-01-04 02:19:00,44.2,2.1,30.16,ESE,103,0.0,0.0,17,0.00,CLR,FEW,0.00,0.0,WeatherDisplay:10.37,2013-01-04 10:19:00,
2013-01-04 02:21:00,44.1,2.0,30.16,East,97,0.0,0.0,17,0.00,CLR,FEW,0.00,0.0,WeatherDisplay:10.37,2013-01-04 10:21:00,
2013-01-04 02:22:00,44.1,2.0,30.16,ESE,103,0.0,0.0,17,0.00,CLR,FEW,0.00,0.0,WeatherDisplay:10.37,2013-01-04 10:22:00,
2013-01-04 02:24:00,44.1,2.0,30.16,East,99,0.0,0.0,17,0.00,CLR,FEW,0.00,0.0,WeatherDisplay:10.37,2013-01-04 10:24:00,
2013-01-04 02:27:00,43.9,1.8,30.16,East,85,3.5,10.4,17,0.00,CLR,FEW,0.00,0.0,WeatherDisplay:10.37,2013-01-04 10:27:00,
2013-01-04 02:28:00,43.9,1.8,30.16,East,96,0.0,10.4,17,0.00,CLR,FEW,0.00,0.0,WeatherDisplay:10.37,2013-01-04 10:28:00,
2013-01-04 02:29:00,44.1,2.0,30.16,East,97,1.9,8.1,17,0.00,CLR,FEW,0.00,0.0,WeatherDisplay:10.37,2013-01-04 10:29:00,
2013-01-04 02:32:00,43.9,1.8,30.16,East,97,4.5,7.8,17,0.00,CLR,FEW,0.00,0.0,WeatherDisplay:10.37,2013-01-04 10:32:00,
2013-01-04 02:33:00,43.9,1.8,30.16,East,90,1.2,8.1,17,0.00,CLR,FEW,0.00,0.0,WeatherDisplay:10.37,2013-01-04 10:33:00,
2013-01-04 02:35:00,43.9,1.8,30.16,ESE,102,2.0,0.0,17,0.00,CLR,FEW,0.00,0.0,WeatherDisplay:10.37,2013-01-04 10:35:00,
2013-01-04 02:38:00,43.8,1.7,30.16,ENE,76,1.2,6.5,17,0.00,CLR,FEW,0.00,0.0,WeatherDisplay:10.37,2013-01-04 10:38:00,
2013-01-04 02:39:00,43.8,1.7,30.16,ESE,106,1.9,2.3,17,0.00,CLR,FEW,0.00,0.0,WeatherDisplay:10.37,2013-01-04 10:39:00,
2013-01-04 02:41:00,43.9,0.5,30.16,ENE,78,0.0,0.0,16,0.00,CLR,FEW,0.00,0.0,WeatherDisplay:10.37,2013-01-04 10:41:00,
2013-01-04 02:43:00,44.1,0.7,30.16,ESE,108,1.0,6.9,16,0.00,CLR,FEW,0.00,0.0,WeatherDisplay:10.37,2013-01-04 10:43:00,
2013-01-04 02:44:00,44.1,0.7,30.16,ESE,117,3.4,8.1,16,0.00,CLR,FEW,0.00,0.0,WeatherDisplay:10.37,2013-01-04 10:44:00,
2013-01-04 02:46:00,44.1,0.7,30.16,ENE,70,0.4,6.9,16,0.00,CLR,FEW,0.00,0.0,WeatherDisplay:10.37,2013-01-04 10:46:00,
2013-01-04 02:47:00,44.1,0.7,30.16,ESE,105,2.2,3.9,16,0.00,CLR,FEW,0.00,0.0,WeatherDisplay:10.37,2013-01-04 10:47:00,
2013-01-04 02:49:00,44.1,0.7,30.16,ESE,105,4.9,9.2,16,0.00,CLR,FEW,0.00,0.0,WeatherDisplay:10.37,2013-01-04 10:49:00,
2013-01-04 02:50:00,44.1,0.7,30.16,ESE,103,4.1,9.2,16,0.00,CLR,FEW,0.00,0.0,WeatherDisplay:10.37,2013-01-04 10:50:00,
2013-01-04 02:51:00,44.1,0.7,30.16,SE,130,2.0,5.8,16,0.00,CLR,FEW,0.00,0.0,WeatherDisplay:10.37,2013-01-04 10:51:00,
2013-01-04 02:53:00,44.1,0.7,30.16,ESE,109,0.8,3.5,16,0.00,CLR,FEW,0.00,0.0,WeatherDisplay:10.37,2013-01-04 10:53:00,
2013-01-04 02:54:00,44.1,0.7,30.16,East,100,0.4,2.3,16,0.00,CLR,FEW,0.00,0.0,WeatherDisplay:10.37,2013-01-04 10:54:00,
2013-01-04 02:56:00,44.1,0.7,30.16,East,93,0.5,3.5,16,0.00,CLR,FEW,0.00,0.0,WeatherDisplay:10.37,2013-01-04 10:56:00,
2013-01-04 02:58:00,44.1,0.7,30.16,ESE,114,3.5,3.9,16,0.00,CLR,FEW,0.00,0.0,WeatherDisplay:10.37,2013-01-04 10:58:00,
2013-01-04 03:00:00,44.2,0.8,30.17,East,83,1.1,2.3,16,0.00,CLR,FEW,0.00,0.0,WeatherDisplay:10.37,2013-01-04 11:00:00,
2013-01-04 03:01:00,44.2,0.8,30.17,ESE,118,1.0,6.9,16,0.00,CLR,FEW,0.00,0.0,WeatherDisplay:10.37,2013-01-04 11:01:00,
2013-01-04 03:03:00,44.3,0.8,30.17,East,86,0.1,1.1,16,0.00,CLR,FEW,0.00,0.0,WeatherDisplay:10.37,2013-01-04 11:03:00,
2013-01-04 03:05:00,44.2,0.8,30.17,NE,49,0.0,0.0,16,0.00,CLR,FEW,0.00,0.0,WeatherDisplay:10.37,2013-01-04 11:05:00,
2013-01-04 03:07:00,44.1,0.7,30.17,East,90,0.1,1.1,16,0.00,CLR,FEW,0.00,0.0,WeatherDisplay:10.37,2013-01-04 11:07:00,
2013-01-04 03:09:00,43.9,0.5,30.17,SE,138,0.0,0.0,16,0.00,CLR,FEW,0.00,0.0,WeatherDisplay:10.37,2013-01-04 11:09:00,
2013-01-04 03:10:00,43.9,0.5,30.17,ESE,105,0.0,0.0,16,0.00,CLR,FEW,0.00,0.0,WeatherDisplay:10.37,2013-01-04 11:10:00,
2013-01-04 03:13:00,44.1,-0.7,30.17,East,90,0.0,1.1,15,0.00,CLR,FEW,0.00,0.0,WeatherDisplay:10.37,2013-01-04 11:13:00,
2013-01-04 03:14:00,44.2,-0.6,30.17,NE,56,0.0,1.1,15,0.00,CLR,FEW,0.00,0.0,WeatherDisplay:10.37,2013-01-04 11:14:00,
2013-01-04 03:15:00,44.2,0.8,30.17,East,98,0.0,0.0,16,0.00,CLR,FEW,0.00,0.0,WeatherDisplay:10.37,2013-01-04 11:15:00,
2013-01-04 03:19:00,44.3,-0.5,30.17,ENE,63,0.0,0.0,15,0.00,CLR,FEW,0.00,0.0,WeatherDisplay:10.37,2013-01-04 11:19:00,
2013-01-04 03:20:00,44.5,-0.4,30.17,ENE,57,0.0,0.0,15,0.00,CLR,FEW,0.00,0.0,WeatherDisplay:10.37,2013-01-04 11:20:00,
2013-01-04 03:24:00,44.6,-1.8,30.17,ENE,67,0.0,0.0,14,0.00,CLR,FEW,0.00,0.0,WeatherDisplay:10.37,2013-01-04 11:24:00,
2013-01-04 03:25:00,44.8,-1.6,30.17,NE,53,0.0,0.0,14,0.00,CLR,FEW,0.00,0.0,WeatherDisplay:10.37,2013-01-04 11:25:00,
2013-01-04 03:30:00,44.3,2.1,30.17,NE,46,0.0,0.0,17,0.00,CLR,FEW,0.00,0.0,WeatherDisplay:10.37,2013-01-04 11:30:00,
2013-01-04 03:31:00,44.2,2.1,30.17,NNE,32,0.0,0.0,17,0.00,CLR,FEW,0.00,0.0,WeatherDisplay:10.37,2013-01-04 11:31:00,
2013-01-04 03:32:00,44.1,2.0,30.17,NE,46,0.0,0.0,17,0.00,CLR,FEW,0.00,0.0,WeatherDisplay:10.37,2013-01-04 11:32:00,
2013-01-04 03:35:00,43.8,-0.9,30.17,East,80,0.0,0.0,15,0.00,CLR,FEW,0.00,0.0,WeatherDisplay:10.37,2013-01-04 11:35:00,
2013-01-04 03:36:00,43.9,0.5,30.17,NE,52,0.0,0.0,16,0.00,CLR,FEW,0.00,0.0,WeatherDisplay:10.37,2013-01-04 11:36:00,
2013-01-04 03:38:00,43.8,1.7,30.17,NE,50,0.0,0.0,17,0.00,CLR,FEW,0.00,0.0,WeatherDisplay:10.37,2013-01-04 11:38:00,
2013-01-04 03:41:00,43.3,2.6,30.17,NE,36,0.0,0.0,18,0.00,CLR,FEW,0.00,0.0,WeatherDisplay:10.37,2013-01-04 11:41:00,
2013-01-04 03:44:00,42.9,2.2,30.17,NE,55,0.0,0.0,18,0.00,CLR,FEW,0.00,0.0,WeatherDisplay:10.37,2013-01-04 11:44:00,
2013-01-04 03:46:00,42.8,2.1,30.16,ENE,63,0.0,0.0,18,0.00,CLR,FEW,0.00,0.0,WeatherDisplay:10.37,2013-01-04 11:46:00,
2013-01-04 03:47:00,42.9,-0.3,30.16,NE,54,0.0,0.0,16,0.00,CLR,FEW,0.00,0.0,WeatherDisplay:10.37,2013-01-04 11:47:00,
2013-01-04 03:49:00,43.2,-0.1,30.16,East,88,0.0,0.0,16,0.00,CLR,FEW,0.00,0.0,WeatherDisplay:10.37,2013-01-04 11:49:00,
2013-01-04 03:51:00,43.5,0.2,30.16,East,88,0.0,0.0,16,0.00,CLR,FEW,0.00,0.0,WeatherDisplay:10.37,2013-01-04 11:51:00,
2013-01-04 03:52:00,43.6,0.3,30.16,ESE,109,1.2,3.9,16,0.00,CLR,FEW,0.00,0.0,WeatherDisplay:10.37,2013-01-04 11:52:00,
2013-01-04 03:54:00,43.9,-0.9,30.16,East,84,0.0,0.0,15,0.00,CLR,FEW,0.00,0.0,WeatherDisplay:10.37,2013-01-04 11:54:00,
2013-01-04 03:55:00,43.9,-0.9,30.16,ESE,118,0.0,0.0,15,0.00,CLR,FEW,0.00,0.0,WeatherDisplay:10.37,2013-01-04 11:55:00,
2013-01-04 03:57:00,43.9,0.5,30.16,East,83,0.0,0.0,16,0.00,CLR,FEW,0.00,0.0,WeatherDisplay:10.37,2013-01-04 11:57:00,
2013-01-04 03:59:00,44.1,-0.7,30.16,ESE,105,1.8,10.4,15,0.00,CLR,FEW,0.00,0.0,WeatherDisplay:10.37,2013-01-04 11:59:00,
2013-01-04 04:01:00,44.1,-0.7,30.16,ESE,114,1.9,9.2,15,0.00,CLR,FEW,0.00,0.0,WeatherDisplay:10.37,2013-01-04 12:01:00,
2013-01-04 04:02:00,44.2,-0.6,30.16,East,101,4.9,10.4,15,0.00,CLR,FEW,0.00,0.0,WeatherDisplay:10.37,2013-01-04 12:02:00,
2013-01-04 04:03:00,44.3,-0.5,30.16,East,83,0.1,9.2,15,0.00,CLR,FEW,0.00,0.0,WeatherDisplay:10.37,2013-01-04 12:03:00,
2013-01-04 04:04:00,44.5,-1.8,30.16,East,98,2.4,3.5,14,0.00,CLR,FEW,0.00,0.0,WeatherDisplay:10.37,2013-01-04 12:04:00,
2013-01-04 04:07:00,44.5,-1.8,30.16,East,94,0.5,3.5,14,0.00,CLR,FEW,0.00,0.0,WeatherDisplay:10.37,2013-01-04 12:07:00,
2013-01-04 04:09:00,44.5,-0.4,30.16,ESE,103,0.0,3.5,15,0.00,CLR,FEW,0.00,0.0,WeatherDisplay:10.37,2013-01-04 12:09:00,
2013-01-04 04:12:00,44.6,-1.8,30.16,East,101,3.0,11.5,14,0.00,CLR,FEW,0.00,0.0,WeatherDisplay:10.37,2013-01-04 12:12:00,
2013-01-04 04:13:00,44.6,-1.8,30.16,East,87,0.2,6.9,14,0.00,CLR,FEW,0.00,0.0,WeatherDisplay:10.37,2013-01-04 12:13:00,
2013-01-04 04:14:00,44.6,-1.8,30.16,East,98,1.9,9.2,14,0.00,CLR,FEW,0.00,0.0,WeatherDisplay:10.37,2013-01-04 12:14:00,
2013-01-04 04:17:00,44.5,-0.4,30.16,ESE,109,4.0,10.4,15,0.00,CLR,FEW,0.00,0.0,WeatherDisplay:10.37,2013-01-04 12:17:00,
2013-01-04 04:18:00,44.6,-1.8,30.16,East,94,3.0,9.2,14,0.00,CLR,FEW,0.00,0.0,WeatherDisplay:10.37,2013-01-04 12:18:00,
2013-01-04 04:19:00,44.6,-1.8,30.16,East,89,5.4,9.2,14,0.00,CLR,FEW,0.00,0.0,WeatherDisplay:10.37,2013-01-04 12:19:00,
2013-01-04 04:22:00,44.6,-1.8,30.16,ESE,111,4.9,11.5,14,0.00,CLR,FEW,0.00,0.0,WeatherDisplay:10.37,2013-01-04 12:22:00,
2013-01-04 04:23:00,44.5,-1.8,30.16,East,97,4.3,8.1,14,0.00,CLR,FEW,0.00,0.0,WeatherDisplay:10.37,2013-01-04 12:23:00,
2013-01-04 04:27:00,44.3,-2.0,30.16,ESE,107,3.4,10.4,14,0.00,CLR,FEW,0.00,0.0,WeatherDisplay:10.37,2013-01-04 12:27:00,
2013-01-04 04:28:00,44.3,-2.0,30.16,ESE,111,0.6,8.1,14,0.00,CLR,FEW,0.00,0.0,WeatherDisplay:10.37,2013-01-04 12:28:00,
2013-01-04 04:29:00,44.5,-1.8,30.15,East,96,4.2,6.9,14,0.00,CLR,FEW,0.00,0.0,WeatherDisplay:10.37,2013-01-04 12:29:00,
2013-01-04 04:33:00,44.5,-1.8,30.15,ESE,121,0.2,5.2,14,0.00,CLR,FEW,0.00,0.0,WeatherDisplay:10.37,2013-01-04 12:33:00,
2013-01-04 04:34:00,44.6,-1.8,30.15,ESE,123,0.8,9.2,14,0.00,CLR,FEW,0.00,0.0,WeatherDisplay:10.37,2013-01-04 12:34:00,
2013-01-04 04:35:00,44.6,-1.8,30.15,ENE,63,0.7,9.2,14,0.00,CLR,FEW,0.00,0.0,WeatherDisplay:10.37,2013-01-04 12:35:00,
2013-01-04 04:38:00,44.9,-1.5,30.15,ENE,73,1.9,6.9,14,0.00,CLR,FEW,0.00,0.0,WeatherDisplay:10.37,2013-01-04 12:38:00,
2013-01-04 04:39:00,44.9,-1.5,30.15,ESE,107,0.5,3.5,14,0.00,CLR,FEW,0.00,0.0,WeatherDisplay:10.37,2013-01-04 12:39:00,
2013-01-04 04:40:00,44.8,-1.6,30.15,ESE,107,2.3,3.9,14,0.00,CLR,FEW,0.00,0.0,WeatherDisplay:10.37,2013-01-04 12:40:00,
2013-01-04 04:43:00,44.2,-2.1,30.15,East,94,0.1,0.0,14,0.00,CLR,FEW,0.00,0.0,WeatherDisplay:10.37,2013-01-04 12:43:00,
2013-01-04 04:44:00,44.1,-0.7,30.15,East,96,0.0,2.3,15,0.00,CLR,FEW,0.00,0.0,WeatherDisplay:10.37,2013-01-04 12:44:00,
2013-01-04 04:45:00,44.1,-2.2,30.15,East,98,0.0,2.3,14,0.00,CLR,FEW,0.00,0.0,WeatherDisplay:10.37,2013-01-04 12:45:00,
2013-01-04 04:48:00,43.8,-0.9,30.15,East,89,1.0,3.5,15,0.00,CLR,FEW,0.00,0.0,WeatherDisplay:10.37,2013-01-04 12:48:00,
2013-01-04 04:50:00,43.8,-0.9,30.15,ESE,104,1.8,6.9,15,0.00,CLR,FEW,0.00,0.0,WeatherDisplay:10.37,2013-01-04 12:50:00,
2013-01-04 04:51:00,43.6,-1.1,30.15,East,84,1.1,7.8,15,0.00,CLR,FEW,0.00,0.0,WeatherDisplay:10.37,2013-01-04 12:51:00,
2013-01-04 04:53:00,43.9,-2.3,30.15,East,86,1.9,6.9,14,0.00,CLR,FEW,0.00,0.0,WeatherDisplay:10.37,2013-01-04 12:53:00,
2013-01-04 04:55:00,43.9,-0.9,30.15,ESE,119,1.4,9.2,15,0.00,CLR,FEW,0.00,0.0,WeatherDisplay:10.37,2013-01-04 12:55:00,
2013-01-04 04:56:00,43.8,-0.9,30.15,East,88,0.3,2.3,15,0.00,CLR,FEW,0.00,0.0,WeatherDisplay:10.37,2013-01-04 12:56:00,
2013-01-04 04:57:00,43.8,-0.9,30.15,ENE,72,1.2,2.3,15,0.00,CLR,FEW,0.00,0.0,WeatherDisplay:10.37,2013-01-04 12:57:00,
2013-01-04 04:58:00,43.6,-1.1,30.15,ESE,105,0.3,6.9,15,0.00,CLR,FEW,0.00,0.0,WeatherDisplay:10.37,2013-01-04 12:58:00,
2013-01-04 05:01:00,43.8,-0.9,30.15,East,101,0.3,5.8,15,0.00,CLR,FEW,0.00,0.0,WeatherDisplay:10.37,2013-01-04 13:01:00,
2013-01-04 05:03:00,43.9,-0.9,30.15,ESE,103,0.8,6.9,15,0.00,CLR,FEW,0.00,0.0,WeatherDisplay:10.37,2013-01-04 13:03:00,
2013-01-04 05:05:00,43.9,-0.9,30.15,East,101,0.3,3.9,15,0.00,CLR,FEW,0.00,0.0,WeatherDisplay:10.37,2013-01-04 13:05:00,
2013-01-04 05:06:00,44.1,-2.2,30.15,East,92,0.2,3.5,14,0.00,CLR,FEW,0.00,0.0,WeatherDisplay:10.37,2013-01-04 13:06:00,
2013-01-04 05:07:00,44.1,-0.7,30.15,East,94,0.5,3.9,15,0.00,CLR,FEW,0.00,0.0,WeatherDisplay:10.37,2013-01-04 13:07:00,
2013-01-04 05:09:00,44.2,-2.1,30.15,East,94,1.6,9.2,14,0.00,CLR,FEW,0.00,0.0,WeatherDisplay:10.37,2013-01-04 13:09:00,
2013-01-04 05:10:00,44.2,-2.1,30.15,ESE,115,1.2,9.2,14,0.00,CLR,FEW,0.00,0.0,WeatherDisplay:10.37,2013-01-04 13:10:00,
2013-01-04 05:12:00,44.5,-1.8,30.15,ESE,107,5.1,11.5,14,0.00,CLR,FEW,0.00,0.0,WeatherDisplay:10.37,2013-01-04 13:12:00,
2013-01-04 05:13:00,44.5,-1.8,30.15,ESE,102,2.1,6.9,14,0.00,CLR,FEW,0.00,0.0,WeatherDisplay:10.37,2013-01-04 13:13:00,
2013-01-04 05:14:00,44.5,-1.8,30.15,ESE,120,6.3,14.3,14,0.00,CLR,FEW,0.00,0.0,WeatherDisplay:10.37,2013-01-04 13:14:00,
2013-01-04 05:15:00,44.5,-1.8,30.15,ESE,103,7.3,7.3,14,0.00,CLR,FEW,0.00,0.0,WeatherDisplay:10.37,2013-01-04 13:15:00,
2013-01-04 05:17:00,44.5,-1.8,30.15,ESE,103,2.3,9.2,14,0.00,CLR,FEW,0.00,0.0,WeatherDisplay:10.37,2013-01-04 13:17:00,
2013-01-04 05:19:00,44.3,-2.0,30.15,East,88,4.4,9.2,14,0.00,CLR,FEW,0.00,0.0,WeatherDisplay:10.37,2013-01-04 13:19:00,
2013-01-04 05:22:00,44.2,-2.1,30.15,ESE,119,0.2,9.2,14,0.00,CLR,FEW,0.00,0.0,WeatherDisplay:10.37,2013-01-04 13:22:00,
2013-01-04 05:23:00,44.2,-2.1,30.15,East,101,1.7,2.3,14,0.00,CLR,FEW,0.00,0.0,WeatherDisplay:10.37,2013-01-04 13:23:00,
2013-01-04 05:24:00,44.3,-2.0,30.15,ESE,107,2.8,6.9,14,0.00,CLR,FEW,0.00,0.0,WeatherDisplay:10.37,2013-01-04 13:24:00,
2013-01-04 05:27:00,44.3,-2.0,30.15,SE,126,0.0,3.5,14,0.00,CLR,FEW,0.00,0.0,WeatherDisplay:10.37,2013-01-04 13:27:00,
2013-01-04 05:29:00,44.3,-2.0,30.15,East,89,0.8,6.9,14,0.00,CLR,FEW,0.00,0.0,WeatherDisplay:10.37,2013-01-04 13:29:00,
2013-01-04 05:32:00,44.2,-0.6,30.15,ENE,78,0.0,1.1,15,0.00,CLR,FEW,0.00,0.0,WeatherDisplay:10.37,2013-01-04 13:32:00,
2013-01-04 05:34:00,43.9,-0.9,30.15,NE,36,0.0,0.0,15,0.00,CLR,FEW,0.00,0.0,WeatherDisplay:10.37,2013-01-04 13:34:00,
2013-01-04 05:35:00,43.9,-0.9,30.15,North,9,0.0,0.0,15,0.00,CLR,FEW,0.00,0.0,WeatherDisplay:10.37,2013-01-04 13:35:00,
2013-01-04 05:37:00,43.5,1.5,30.15,North,9,0.0,0.0,17,0.00,CLR,FEW,0.00,0.0,WeatherDisplay:10.37,2013-01-04 13:37:00,
2013-01-04 05:40:00,43.2,-0.1,30.15,North,350,0.0,0.0,16,0.00,CLR,FEW,0.00,0.0,WeatherDisplay:10.37,2013-01-04 13:40:00,
2013-01-04 05:42:00,42.9,-0.3,30.15,North,11,0.0,0.0,16,0.00,CLR,FEW,0.00,0.0,WeatherDisplay:10.37,2013-01-04 13:42:00,
2013-01-04 05:45:00,42.9,-0.3,30.15,ENE,58,0.0,0.0,16,0.00,CLR,FEW,0.00,0.0,WeatherDisplay:10.37,2013-01-04 13:45:00,
2013-01-04 05:46:00,42.9,-0.3,30.15,East,88,0.0,0.0,16,0.00,CLR,FEW,0.00,0.0,WeatherDisplay:10.37,2013-01-04 13:46:00,
2013-01-04 05:47:00,42.9,-1.7,30.15,East,96,0.1,0.0,15,0.00,CLR,FEW,0.00,0.0,WeatherDisplay:10.37,2013-01-04 13:47:00,
2013-01-04 05:50:00,43.3,-1.4,30.15,East,86,0.1,2.3,15,0.00,CLR,FEW,0.00,0.0,WeatherDisplay:10.37,2013-01-04 13:50:00,
2013-01-04 05:51:00,43.5,-1.2,30.15,East,98,0.0,0.0,15,0.00,CLR,FEW,0.00,0.0,WeatherDisplay:10.37,2013-01-04 13:51:00,
2013-01-04 05:52:00,43.6,-2.6,30.15,East,96,0.0,0.0,14,0.00,CLR,FEW,0.00,0.0,WeatherDisplay:10.37,2013-01-04 13:52:00,
2013-01-04 05:56:00,44.1,-2.2,30.15,East,87,1.2,6.9,14,0.00,CLR,FEW,0.00,0.0,WeatherDisplay:10.37,2013-01-04 13:56:00,
2013-01-04 05:57:00,44.1,-2.2,30.15,ESE,105,2.6,9.2,14,0.00,CLR,FEW,0.00,0.0,WeatherDisplay:10.37,2013-01-04 13:57:00,
2013-01-04 06:01:00,44.3,-2.0,30.16,ESE,117,9.3,12.7,14,0.00,CLR,FEW,0.00,0.0,WeatherDisplay:10.37,2013-01-04 14:01:00,
2013-01-04 06:02:00,44.3,-2.0,30.16,ESE,121,6.9,12.7,14,0.00,CLR,FEW,0.00,0.0,WeatherDisplay:10.37,2013-01-04 14:02:00,
2013-01-04 06:03:00,44.3,-2.0,30.16,ESE,104,9.7,12.7,14,0.00,CLR,FEW,0.00,0.0,WeatherDisplay:10.37,2013-01-04 14:03:00,
2013-01-04 06:06:00,44.2,-2.1,30.16,East,94,10.6,10.6,14,0.00,CLR,FEW,0.00,0.0,WeatherDisplay:10.37,2013-01-04 14:06:00,
2013-01-04 06:07:00,44.2,-2.1,30.16,ESE,111,10.2,10.4,14,0.00,CLR,FEW,0.00,0.0,WeatherDisplay:10.37,2013-01-04 14:07:00,
2013-01-04 06:08:00,44.2,-2.1,30.16,ESE,115,4.9,9.2,14,0.00,CLR,FEW,0.00,0.0,WeatherDisplay:10.37,2013-01-04 14:08:00,
2013-01-04 06:12:00,44.2,-2.1,30.16,East,93,5.9,10.4,14,0.00,CLR,FEW,0.00,0.0,WeatherDisplay:10.37,2013-01-04 14:12:00,
2013-01-04 06:13:00,44.2,-2.1,30.16,ESE,103,2.2,10.4,14,0.00,CLR,FEW,0.00,0.0,WeatherDisplay:10.37,2013-01-04 14:13:00,
2013-01-04 06:15:00,44.2,-0.6,30.16,ESE,106,0.0,0.0,15,0.00,CLR,FEW,0.00,0.0,WeatherDisplay:10.37,2013-01-04 14:15:00,
2013-01-04 06:17:00,44.1,-0.7,30.16,ESE,108,2.5,10.4,15,0.00,CLR,FEW,0.00,0.0,WeatherDisplay:10.37,2013-01-04 14:17:00,
2013-01-04 06:18:00,44.2,-2.1,30.16,ENE,68,3.0,9.2,14,0.00,CLR,FEW,0.00,0.0,WeatherDisplay:10.37,2013-01-04 14:18:00,
2013-01-04 06:21:00,43.9,-0.9,30.16,East,86,0.0,0.0,15,0.00,CLR,FEW,0.00,0.0,WeatherDisplay:10.37,2013-01-04 14:21:00,
2013-01-04 06:23:00,43.9,-0.9,30.16,ENE,75,0.0,0.0,15,0.00,OVC,FEW,0.00,0.0,WeatherDisplay:10.37,2013-01-04 14:23:00,
2013-01-04 06:25:00,43.8,0.4,30.16,ENE,64,0.0,0.0,16,0.00,OVC,FEW,0.00,0.0,WeatherDisplay:10.37,2013-01-04 14:25:00,
2013-01-04 06:28:00,43.5,-1.2,30.16,ENE,76,0.0,0.0,15,0.00,OVC,FEW,0.00,0.0,WeatherDisplay:10.37,2013-01-04 14:28:00,
2013-01-04 06:29:00,43.5,0.2,30.16,ENE,76,0.0,0.0,16,0.00,OVC,FEW,0.00,0.0,WeatherDisplay:10.37,2013-01-04 14:29:00,
2013-01-04 06:30:00,43.3,0.0,30.17,NNE,32,0.0,0.0,16,0.00,OVC,FEW,0.00,0.0,WeatherDisplay:10.37,2013-01-04 14:30:00,
2013-01-04 06:33:00,43.2,-1.4,30.17,North,360,0.0,0.0,15,0.00,OVC,FEW,0.00,0.0,WeatherDisplay:10.37,2013-01-04 14:33:00,
2013-01-04 06:35:00,43.2,-0.1,30.17,NE,44,0.0,0.0,16,0.00,OVC,FEW,0.00,0.0,WeatherDisplay:10.37,2013-01-04 14:35:00,
2013-01-04 06:38:00,43.2,-1.4,30.17,North,5,0.0,0.0,15,0.00,OVC,FEW,0.00,0.0,WeatherDisplay:10.37,2013-01-04 14:38:00,
2013-01-04 06:39:00,43.2,-1.4,30.17,North,360,0.0,0.0,15,0.00,OVC,FEW,0.00,0.0,WeatherDisplay:10.37,2013-01-04 14:39:00,
2013-01-04 06:40:00,43.2,-1.4,30.17,North,5,0.0,0.0,15,0.00,OVC,FEW,0.00,0.0,WeatherDisplay:10.37,2013-01-04 14:40:00,
2013-01-04 06:41:00,43.2,-2.9,30.17,North,5,0.0,0.0,14,0.00,OVC,FEW,0.00,0.0,WeatherDisplay:10.37,2013-01-04 14:41:00,
2013-01-04 06:43:00,43.3,-1.4,30.17,NNE,21,0.0,0.0,15,0.00,OVC,FEW,0.00,0.0,WeatherDisplay:10.37,2013-01-04 14:43:00,
2013-01-04 06:44:00,43.3,-1.4,30.17,NNE,22,0.0,0.0,15,0.00,OVC,FEW,0.00,0.0,WeatherDisplay:10.37,2013-01-04 14:44:00,
2013-01-04 06:46:00,43.3,-1.4,30.17,NNE,23,0.0,0.0,15,0.00,OVC,FEW,0.00,0.0,WeatherDisplay:10.37,2013-01-04 14:46:00,
2013-01-04 06:48:00,43.3,-2.8,30.17,ENE,59,0.0,0.0,14,0.00,OVC,FEW,0.00,0.0,WeatherDisplay:10.37,2013-01-04 14:48:00,
2013-01-04 06:50:00,43.5,-1.2,30.17,NE,52,0.0,0.0,15,0.00,OVC,FEW,0.00,0.0,WeatherDisplay:10.37,2013-01-04 14:50:00,
2013-01-04 06:51:00,43.5,-1.2,30.17,ENE,74,0.0,0.0,15,0.00,OVC,FEW,0.00,0.0,WeatherDisplay:10.37,2013-01-04 14:51:00,
2013-01-04 06:53:00,43.5,0.2,30.17,NNE,24,0.0,0.0,16,0.00,OVC,FEW,0.00,0.0,WeatherDisplay:10.37,2013-01-04 14:53:00,
2013-01-04 06:56:00,43.3,-1.4,30.17,ENE,69,0.0,0.0,15,0.00,OVC,FEW,0.00,5.3,WeatherDisplay:10.37,2013-01-04 14:56:00,
2013-01-04 06:58:00,43.5,-2.6,30.17,NNE,33,0.0,0.0,14,0.00,OVC,FEW,0.00,5.3,WeatherDisplay:10.37,2013-01-04 14:58:00,
2013-01-04 07:01:00,43.5,0.2,30.18,NE,40,0.0,0.0,16,0.00,CLR,FEW,0.00,7.4,WeatherDisplay:10.37,2013-01-04 15:01:00,
2013-01-04 07:02:00,43.5,0.2,30.18,NE,40,0.0,0.0,16,0.00,CLR,FEW,0.00,7.4,WeatherDisplay:10.37,2013-01-04 15:02:00,
2013-01-04 07:04:00,43.5,-2.6,30.18,North,360,0.0,0.0,14,0.00,FEW,,0.00,9.5,WeatherDisplay:10.37,2013-01-04 15:04:00,
2013-01-04 07:05:00,43.5,-1.2,30.18,NE,41,0.0,0.0,15,0.00,FEW,,0.00,9.5,WeatherDisplay:10.37,2013-01-04 15:05:00,
2013-01-04 07:06:00,43.6,-2.6,30.18,NNE,27,0.0,0.0,14,0.00,SCT,FEW,0.00,9.5,WeatherDisplay:10.37,2013-01-04 15:06:00,
2013-01-04 07:07:00,43.6,-2.6,30.18,NE,47,0.0,0.0,14,0.00,SCT,FEW,0.00,9.5,WeatherDisplay:10.37,2013-01-04 15:07:00,
2013-01-04 07:09:00,43.6,-1.1,30.18,ENE,67,0.0,0.0,15,0.00,SCT,FEW,0.00,11.6,WeatherDisplay:10.37,2013-01-04 15:09:00,
2013-01-04 07:10:00,43.6,-2.6,30.18,NNE,32,0.0,0.0,14,0.00,SCT,FEW,0.00,11.6,WeatherDisplay:10.37,2013-01-04 15:10:00,
2013-01-04 07:11:00,43.6,-1.1,30.18,North,9,0.0,0.0,15,0.00,BKN,FEW,0.00,11.6,WeatherDisplay:10.37,2013-01-04 15:11:00,
2013-01-04 07:13:00,43.6,-1.1,30.18,North,9,0.0,0.0,15,0.00,BKN,FEW,0.00,11.6,WeatherDisplay:10.37,2013-01-04 15:13:00,
2013-01-04 07:14:00,43.5,-1.2,30.18,North,10,0.0,0.0,15,0.00,BKN,FEW,0.00,12.6,WeatherDisplay:10.37,2013-01-04 15:14:00,
2013-01-04 07:15:00,43.5,-2.6,30.18,NE,53,0.0,0.0,14,0.00,BKN,FEW,0.00,12.6,WeatherDisplay:10.37,2013-01-04 15:15:00,
2013-01-04 07:16:00,43.5,0.2,30.18,North,5,0.0,0.0,16,0.00,BKN,FEW,0.00,16.8,WeatherDisplay:10.37,2013-01-04 15:16:00,
2013-01-04 07:18:00,43.5,-1.2,30.18,NNE,15,0.0,0.0,15,0.00,FEW,,0.00,38.9,WeatherDisplay:10.37,2013-01-04 15:18:00,
2013-01-04 07:19:00,43.5,-2.6,30.18,NNE,20,0.0,0.0,14,0.00,CLR,FEW,0.00,46.2,WeatherDisplay:10.37,2013-01-04 15:19:00,
2013-01-04 07:20:00,43.6,-2.6,30.18,NNE,20,0.0,0.0,14,0.00,CLR,FEW,0.00,46.2,WeatherDisplay:10.37,2013-01-04 15:20:00,
2013-01-04 07:21:00,43.8,-0.9,30.18,East,81,0.0,0.0,15,0.00,CLR,FEW,0.00,51.5,WeatherDisplay:10.37,2013-01-04 15:21:00,
2013-01-04 07:24:00,44.1,-0.7,30.18,North,355,0.0,0.0,15,0.00,CLR,FEW,0.00,60.9,WeatherDisplay:10.37,2013-01-04 15:24:00,
2013-01-04 07:25:00,44.1,-0.7,30.18,North,355,0.0,0.0,15,0.00,CLR,FEW,0.00,60.9,WeatherDisplay:10.37,2013-01-04 15:25:00,
2013-01-04 07:27:00,44.2,-0.6,30.18,ENE,63,0.0,0.0,15,0.00,CLR,FEW,0.00,65.1,WeatherDisplay:10.37,2013-01-04 15:27:00,
2013-01-04 07:29:00,44.3,-0.5,30.19,NE,50,0.0,0.0,15,0.00,CLR,FEW,0.00,75.6,WeatherDisplay:10.37,2013-01-04 15:29:00,
2013-01-04 07:30:00,44.3,-0.5,30.19,NE,50,0.0,0.0,15,0.00,CLR,FEW,0.00,75.6,WeatherDisplay:10.37,2013-01-04 15:30:00,
2013-01-04 07:32:00,44.3,0.8,30.19,NE,50,0.0,0.0,16,0.00,CLR,FEW,0.00,85.0,WeatherDisplay:10.37,2013-01-04 15:32:00,
2013-01-04 07:34:00,44.5,-0.4,30.19,NNE,31,0.0,0.0,15,0.00,CLR,FEW,0.00,92.4,WeatherDisplay:10.37,2013-01-04 15:34:00,
2013-01-04 07:35:00,44.6,-0.3,30.19,NNE,32,0.0,0.0,15,0.00,CLR,FEW,0.00,92.4,WeatherDisplay:10.37,2013-01-04 15:35:00,
2013-01-04 07:38:00,44.8,1.2,30.19,NNE,31,0.0,0.0,16,0.00,CLR,FEW,0.00,97.7,WeatherDisplay:10.37,2013-01-04 15:38:00,
2013-01-04 07:40:00,45.1,0.1,30.19,NNE,31,0.0,0.0,15,0.00,CLR,FEW,0.00,109.2,WeatherDisplay:10.37,2013-01-04 15:40:00,
2013-01-04 07:43:00,45.4,1.7,30.19,NNE,31,0.0,0.0,16,0.00,CLR,FEW,0.00,118.7,WeatherDisplay:10.37,2013-01-04 15:43:00,
2013-01-04 07:45:00,46.0,0.8,30.20,NNE,32,0.0,0.0,15,0.00,CLR,FEW,0.00,127.1,WeatherDisplay:10.37,2013-01-04 15:45:00,
2013-01-04 07:47:00,46.2,2.4,30.20,NNE,32,0.0,0.0,16,0.00,CLR,FEW,0.00,133.3,WeatherDisplay:10.37,2013-01-04 15:47:00,
2013-01-04 07:48:00,46.4,2.6,30.20,NNE,32,0.0,0.0,16,0.00,CLR,FEW,0.00,136.5,WeatherDisplay:10.37,2013-01-04 15:48:00,
2013-01-04 07:50:00,46.5,-0.2,30.20,NNE,33,0.0,0.0,14,0.00,CLR,FEW,0.00,146.0,WeatherDisplay:10.37,2013-01-04 15:50:00,
2013-01-04 07:52:00,46.5,1.2,30.20,NNE,17,0.0,0.0,15,0.00,CLR,FEW,0.00,151.2,WeatherDisplay:10.37,2013-01-04 15:52:00,
2013-01-04 07:53:00,46.5,1.2,30.20,NNE,17,0.0,0.0,15,0.00,CLR,FEW,0.00,155.4,WeatherDisplay:10.37,2013-01-04 15:53:00,
2013-01-04 07:56:00,46.5,-0.2,30.20,NNE,17,0.0,0.0,14,0.00,CLR,FEW,0.00,160.7,WeatherDisplay:10.37,2013-01-04 15:56:00,
2013-01-04 07:57:00,46.8,1.5,30.20,NNE,18,0.0,0.0,15,0.00,CLR,FEW,0.00,165.9,WeatherDisplay:10.37,2013-01-04 15:57:00,
2013-01-04 07:58:00,46.8,1.5,30.20,NNE,18,0.0,0.0,15,0.00,CLR,FEW,0.00,168.0,WeatherDisplay:10.37,2013-01-04 15:58:00,
2013-01-04 07:59:00,47.1,1.7,30.20,NNE,18,0.0,0.0,15,0.00,CLR,FEW,0.00,173.3,WeatherDisplay:10.37,2013-01-04 15:59:00,
2013-01-04 08:02:00,47.4,0.5,30.20,NNE,18,0.0,0.0,14,0.00,CLR,FEW,0.00,180.6,WeatherDisplay:10.37,2013-01-04 16:02:00,
2013-01-04 08:03:00,47.4,2.0,30.20,NNE,18,0.0,0.0,15,0.00,CLR,FEW,0.00,182.7,WeatherDisplay:10.37,2013-01-04 16:03:00,
2013-01-04 08:05:00,47.6,4.9,30.20,ENE,78,0.0,0.0,17,0.00,CLR,FEW,0.00,188.0,WeatherDisplay:10.37,2013-01-04 16:05:00,
2013-01-04 08:08:00,47.7,2.2,30.20,ENE,78,0.0,0.0,15,0.00,CLR,FEW,0.00,195.3,WeatherDisplay:10.37,2013-01-04 16:08:00,
2013-01-04 08:09:00,47.9,0.9,30.20,ENE,78,0.0,0.0,14,0.00,CLR,FEW,0.00,199.5,WeatherDisplay:10.37,2013-01-04 16:09:00,
2013-01-04 08:13:00,48.9,3.2,30.20,NE,40,0.0,0.0,15,0.00,CLR,FEW,0.00,212.1,WeatherDisplay:10.37,2013-01-04 16:13:00,
2013-01-04 08:14:00,49.1,1.9,30.20,NNE,13,0.0,0.0,14,0.00,CLR,FEW,0.00,212.1,WeatherDisplay:10.37,2013-01-04 16:14:00,
2013-01-04 08:15:00,49.2,1.9,30.20,NNE,13,0.0,0.0,14,0.00,CLR,FEW,0.00,216.3,WeatherDisplay:10.37,2013-01-04 16:15:00,
2013-01-04 08:18:00,49.9,5.4,30.20,NNE,13,0.0,0.0,16,0.00,CLR,FEW,0.00,224.7,WeatherDisplay:10.37,2013-01-04 16:18:00,
2013-01-04 08:19:00,50.1,4.2,30.20,NNE,13,0.0,0.0,15,0.00,CLR,FEW,0.00,228.9,WeatherDisplay:10.37,2013-01-04 16:19:00,
2013-01-04 08:20:00,50.1,5.6,30.20,NNE,13,0.0,0.0,16,0.00,CLR,FEW,0.00,228.9,WeatherDisplay:10.37,2013-01-04 16:20:00,
2013-01-04 08:24:00,50.4,5.8,30.20,NNE,14,0.0,0.0,16,0.00,CLR,FEW,0.00,245.7,WeatherDisplay:10.37,2013-01-04 16:24:00,
2013-01-04 08:25:00,50.4,5.8,30.20,NNE,13,0.0,0.0,16,0.00,CLR,FEW,0.00,245.7,WeatherDisplay:10.37,2013-01-04 16:25:00,
2013-01-04 08:29:00,50.7,6.1,30.21,NNE,15,0.0,0.0,16,0.00,CLR,FEW,0.00,260.4,WeatherDisplay:10.37,2013-01-04 16:29:00,
2013-01-04 08:30:00,50.7,6.1,30.21,NNE,15,0.0,0.0,16,0.00,CLR,FEW,0.00,260.4,WeatherDisplay:10.37,2013-01-04 16:30:00,
2013-01-04 08:31:00,50.8,4.7,30.21,NNE,15,0.0,0.0,15,0.00,CLR,FEW,0.00,263.6,WeatherDisplay:10.37,2013-01-04 16:31:00,
2013-01-04 08:34:00,51.3,5.1,30.21,NNE,15,0.0,0.0,15,0.00,CLR,FEW,0.00,273.0,WeatherDisplay:10.37,2013-01-04 16:34:00,
2013-01-04 08:35:00,51.3,5.1,30.21,NNE,16,0.0,0.0,15,0.00,CLR,FEW,0.00,273.0,WeatherDisplay:10.37,2013-01-04 16:35:00,
2013-01-04 08:36:00,51.6,5.4,30.21,NNE,15,0.0,0.0,15,0.00,CLR,FEW,0.00,277.2,WeatherDisplay:10.37,2013-01-04 16:36:00,
2013-01-04 08:39:00,52.3,7.4,30.21,NNE,15,0.0,0.0,16,0.00,CLR,FEW,0.00,285.6,WeatherDisplay:10.37,2013-01-04 16:39:00,
2013-01-04 08:41:00,52.9,7.8,30.21,NNE,15,0.0,0.0,16,0.00,CLR,FEW,0.00,291.9,WeatherDisplay:10.37,2013-01-04 16:41:00,
2013-01-04 08:42:00,52.9,7.8,30.21,NNE,15,0.0,0.0,16,0.00,CLR,FEW,0.00,291.9,WeatherDisplay:10.37,2013-01-04 16:42:00,
2013-01-04 08:43:00,53.2,6.7,30.21,NNE,15,0.0,0.0,15,0.00,CLR,FEW,0.00,295.1,WeatherDisplay:10.37,2013-01-04 16:43:00,
2013-01-04 08:45:00,53.8,7.1,30.21,NNE,15,0.0,0.0,15,0.00,CLR,FEW,0.00,304.5,WeatherDisplay:10.37,2013-01-04 16:45:00,
2013-01-04 08:46:00,53.9,7.2,30.21,NNE,15,0.0,0.0,15,0.00,CLR,FEW,0.00,306.6,WeatherDisplay:10.37,2013-01-04 16:46:00,
2013-01-04 08:47:00,54.1,7.4,30.21,NNE,15,0.0,0.0,15,0.00,CLR,FEW,0.00,306.6,WeatherDisplay:10.37,2013-01-04 16:47:00,
2013-01-04 08:48:00,54.2,7.5,30.21,NNE,16,0.0,0.0,15,0.00,CLR,FEW,0.00,308.7,WeatherDisplay:10.37,2013-01-04 16:48:00,
2013-01-04 08:50:00,54.5,6.2,30.21,NNE,16,0.0,0.0,14,0.00,CLR,FEW,0.00,317.1,WeatherDisplay:10.37,2013-01-04 16:50:00,
2013-01-04 08:51:00,54.8,8.0,30.21,NNE,16,0.0,0.0,15,0.00,CLR,FEW,0.00,319.2,WeatherDisplay:10.37,2013-01-04 16:51:00,
2013-01-04 08:53:00,55.1,5.0,30.21,NNE,16,0.0,0.0,13,0.00,CLR,FEW,0.00,323.4,WeatherDisplay:10.37,2013-01-04 16:53:00,
2013-01-04 08:54:00,55.3,5.2,30.21,NNE,16,0.0,0.0,13,0.00,CLR,FEW,0.00,326.6,WeatherDisplay:10.37,2013-01-04 16:54:00,
2013-01-04 08:55:00,55.7,3.8,30.21,NNE,16,0.0,0.0,12,0.00,CLR,FEW,0.00,330.8,WeatherDisplay:10.37,2013-01-04 16:55:00,
2013-01-04 08:56:00,55.7,3.8,30.21,NNE,16,0.0,0.0,12,0.00,CLR,FEW,0.00,331.8,WeatherDisplay:10.37,2013-01-04 16:56:00,
2013-01-04 08:58:00,56.0,4.0,30.21,NNE,16,0.0,0.0,12,0.00,CLR,FEW,0.00,338.1,WeatherDisplay:10.37,2013-01-04 16:58:00,
2013-01-04 08:59:00,56.3,4.2,30.21,NNE,16,0.0,0.0,12,0.00,CLR,FEW,0.00,341.3,WeatherDisplay:10.37,2013-01-04 16:59:00,
2013-01-04 09:01:00,56.5,2.5,30.21,NNE,16,0.0,0.0,11,0.00,CLR,FEW,0.00,346.5,WeatherDisplay:10.37,2013-01-04 17:01:00,
2013-01-04 09:02:00,56.6,2.6,30.21,NNE,16,0.0,0.0,11,0.00,CLR,FEW,0.00,346.5,WeatherDisplay:10.37,2013-01-04 17:02:00,
2013-01-04 09:03:00,56.7,2.7,30.21,NNE,16,0.0,0.0,11,0.00,CLR,FEW,0.00,350.7,WeatherDisplay:10.37,2013-01-04 17:03:00,
2013-01-04 09:05:00,56.9,4.7,30.21,NNE,16,0.0,0.0,12,0.00,CLR,FEW,0.00,356.0,WeatherDisplay:10.37,2013-01-04 17:05:00,
2013-01-04 09:07:00,57.0,2.9,30.21,NNE,16,0.0,0.0,11,0.00,CLR,FEW,0.00,362.3,WeatherDisplay:10.37,2013-01-04 17:07:00,
2013-01-04 09:08:00,57.2,3.1,30.21,NNE,16,0.0,0.0,11,0.00,CLR,FEW,0.00,363.3,WeatherDisplay:10.37,2013-01-04 17:08:00,
2013-01-04 09:12:00,57.8,5.4,30.21,NNE,16,0.0,0.0,12,0.00,CLR,FEW,0.00,374.9,WeatherDisplay:10.37,2013-01-04 17:12:00,
2013-01-04 09:13:00,58.0,3.7,30.21,NNE,16,0.0,0.0,11,0.00,CLR,FEW,0.00,377.0,WeatherDisplay:10.37,2013-01-04 17:13:00,
2013-01-04 09:18:00,58.1,3.8,30.22,NNE,16,0.0,0.0,11,0.00,CLR,FEW,0.00,387.5,WeatherDisplay:10.37,2013-01-04 17:18:00,
2013-01-04 09:19:00,58.1,1.7,30.22,NNE,16,0.0,0.0,10,0.00,CLR,FEW,0.00,391.7,WeatherDisplay:10.37,2013-01-04 17:19:00,
2013-01-04 09:23:00,58.3,3.9,30.22,North,5,0.0,0.0,11,0.00,CLR,FEW,0.00,399.0,WeatherDisplay:10.37,2013-01-04 17:23:00,
2013-01-04 09:24:00,58.3,5.8,30.22,North,5,0.0,0.0,12,0.00,CLR,FEW,0.00,402.2,WeatherDisplay:10.37,2013-01-04 17:24:00,
2013-01-04 09:25:00,58.3,3.9,30.22,North,5,0.0,0.0,11,0.00,CLR,FEW,0.00,407.4,WeatherDisplay:10.37,2013-01-04 17:25:00,
2013-01-04 09:28:00,58.4,1.9,30.22,North,9,0.0,0.0,10,0.00,CLR,FEW,0.00,411.6,WeatherDisplay:10.37,2013-01-04 17:28:00,
2013-01-04 09:30:00,58.6,2.1,30.23,North,9,0.0,0.0,10,0.00,CLR,FEW,0.00,415.8,WeatherDisplay:10.37,2013-01-04 17:30:00,
2013-01-04 09:34:00,58.7,2.2,30.23,North,9,0.0,0.0,10,0.00,CLR,FEW,0.00,424.2,WeatherDisplay:10.37,2013-01-04 17:34:00,
2013-01-04 09:35:00,58.7,2.2,30.23,North,9,0.0,0.0,10,0.00,CLR,FEW,0.00,426.3,WeatherDisplay:10.37,2013-01-04 17:35:00,
2013-01-04 09:36:00,58.7,2.2,30.23,NNW,344,0.0,0.0,10,0.00,CLR,FEW,0.00,430.5,WeatherDisplay:10.37,2013-01-04 17:36:00,
2013-01-04 09:40:00,58.7,2.2,30.23,NNW,333,0.0,0.0,10,0.00,CLR,FEW,0.00,438.9,WeatherDisplay:10.37,2013-01-04 17:40:00,
2013-01-04 09:42:00,58.7,2.2,30.23,NNW,333,0.0,0.0,10,0.00,CLR,FEW,0.00,441.0,WeatherDisplay:10.37,2013-01-04 17:42:00,
2013-01-04 09:45:00,58.4,7.7,30.23,NNW,333,0.0,0.0,13,0.00,CLR,FEW,0.00,448.4,WeatherDisplay:10.37,2013-01-04 17:45:00,
2013-01-04 09:46:00,58.4,5.9,30.23,NNW,333,0.0,0.0,12,0.00,CLR,FEW,0.00,448.4,WeatherDisplay:10.37,2013-01-04 17:46:00,
2013-01-04 09:48:00,58.3,7.6,30.23,NNW,333,0.0,0.0,13,0.00,CLR,FEW,0.00,453.6,WeatherDisplay:10.37,2013-01-04 17:48:00,
2013-01-04 09:50:00,58.1,5.7,30.23,NNW,333,0.0,0.0,12,0.00,CLR,FEW,0.00,457.8,WeatherDisplay:10.37,2013-01-04 17:50:00,
2013-01-04 09:51:00,58.0,5.6,30.23,NNW,333,0.0,0.0,12,0.00,CLR,FEW,0.00,459.9,WeatherDisplay:10.37,2013-01-04 17:51:00,
2013-01-04 09:53:00,57.5,8.6,30.23,NNW,333,0.0,0.0,14,0.00,CLR,FEW,0.00,467.3,WeatherDisplay:10.37,2013-01-04 17:53:00,
2013-01-04 09:55:00,57.0,9.7,30.23,NNW,333,0.0,0.0,15,0.00,CLR,FEW,0.00,468.3,WeatherDisplay:10.37,2013-01-04 17:55:00,
2013-01-04 09:56:00,56.9,9.6,30.23,NNW,333,0.0,0.0,15,0.00,CLR,FEW,0.00,470.4,WeatherDisplay:10.37,2013-01-04 17:56:00,
2013-01-04 09:57:00,56.7,9.5,30.23,West,279,0.0,0.0,15,0.00,CLR,FEW,0.00,474.6,WeatherDisplay:10.37,2013-01-04 17:57:00,
2013-01-04 09:58:00,56.6,10.9,30.23,West,276,0.0,0.0,16,0.00,CLR,FEW,0.00,477.8,WeatherDisplay:10.37,2013-01-04 17:58:00,
2013-01-04 10:00:00,56.0,14.3,30.23,West,276,0.0,0.0,19,0.00,CLR,FEW,0.00,479.9,WeatherDisplay:10.37,2013-01-04 18:00:00,
2013-01-04 10:01:00,55.9,12.9,30.23,West,276,0.0,0.0,18,0.00,CLR,FEW,0.00,479.9,WeatherDisplay:10.37,2013-01-04 18:01:00,
2013-01-04 10:03:00,55.6,12.7,30.23,West,276,0.0,0.0,18,0.00,CLR,FEW,0.00,484.1,WeatherDisplay:10.37,2013-01-04 18:03:00,
2013-01-04 10:04:00,55.4,12.5,30.23,West,276,0.0,0.0,18,0.00,CLR,FEW,0.00,485.1,WeatherDisplay:10.37,2013-01-04 18:04:00,
2013-01-04 10:05:00,55.1,13.5,30.23,West,276,0.0,0.0,19,0.00,CLR,FEW,0.00,489.3,WeatherDisplay:10.37,2013-01-04 18:05:00,
2013-01-04 10:07:00,55.0,13.4,30.23,West,276,0.0,0.0,19,0.00,CLR,FEW,0.00,491.4,WeatherDisplay:10.37,2013-01-04 18:07:00,
2013-01-04 10:09:00,54.8,13.3,30.23,West,276,0.0,0.0,19,0.00,CLR,FEW,0.00,494.6,WeatherDisplay:10.37,2013-01-04 18:09:00,
2013-01-04 10:11:00,54.8,14.4,30.23,West,276,0.0,0.0,20,0.00,CLR,FEW,0.00,498.8,WeatherDisplay:10.37,2013-01-04 18:11:00,
2013-01-04 10:12:00,54.8,12.0,30.23,West,276,0.0,0.0,18,0.00,CLR,FEW,0.00,498.8,WeatherDisplay:10.37,2013-01-04 18:12:00,
2013-01-04 10:14:00,54.8,13.3,30.23,West,276,0.0,0.0,19,0.00,CLR,FEW,0.00,504.0,WeatherDisplay:10.37,2013-01-04 18:14:00,
2013-01-04 10:15:00,54.8,13.3,30.23,West,276,0.0,0.0,19,0.00,CLR,FEW,0.00,506.1,WeatherDisplay:10.37,2013-01-04 18:15:00,
2013-01-04 10:17:00,54.8,10.7,30.23,West,276,0.0,0.0,17,0.00,CLR,FEW,0.00,507.2,WeatherDisplay:10.37,2013-01-04 18:17:00,
2013-01-04 10:18:00,54.8,10.7,30.23,West,276,0.0,0.0,17,0.00,CLR,FEW,0.00,509.3,WeatherDisplay:10.37,2013-01-04 18:18:00,
2013-01-04 10:19:00,54.8,12.0,30.23,West,276,0.0,0.0,18,0.00,CLR,FEW,0.00,513.5,WeatherDisplay:10.37,2013-01-04 18:19:00,
2013-01-04 10:20:00,54.8,12.0,30.23,West,276,0.0,0.0,18,0.00,CLR,FEW,0.00,516.6,WeatherDisplay:10.37,2013-01-04 18:20:00,
2013-01-04 10:22:00,54.8,12.0,30.23,West,276,0.0,0.0,18,0.00,CLR,FEW,0.00,516.6,WeatherDisplay:10.37,2013-01-04 18:22:00,
2013-01-04 10:23:00,54.8,12.0,30.23,West,276,0.0,0.0,18,0.00,CLR,FEW,0.00,518.7,WeatherDisplay:10.37,2013-01-04 18:23:00,
2013-01-04 10:24:00,54.8,9.4,30.23,West,276,0.0,0.0,16,0.00,CLR,FEW,0.00,520.8,WeatherDisplay:10.37,2013-01-04 18:24:00,
2013-01-04 10:27:00,55.0,10.9,30.23,West,276,0.0,0.0,17,0.00,CLR,FEW,0.00,524.0,WeatherDisplay:10.37,2013-01-04 18:27:00,
2013-01-04 10:28:00,55.0,10.9,30.23,West,276,0.0,0.0,17,0.00,CLR,FEW,0.00,526.1,WeatherDisplay:10.37,2013-01-04 18:28:00,
2013-01-04 10:29:00,55.0,9.6,30.23,West,276,0.0,0.0,16,0.00,CLR,FEW,0.00,529.2,WeatherDisplay:10.37,2013-01-04 18:29:00,
2013-01-04 10:32:00,55.3,6.8,30.23,West,276,0.0,0.0,14,0.00,CLR,FEW,0.00,533.4,WeatherDisplay:10.37,2013-01-04 18:32:00,
2013-01-04 10:33:00,55.3,8.4,30.23,West,276,0.0,0.0,15,0.00,CLR,FEW,0.00,535.5,WeatherDisplay:10.37,2013-01-04 18:33:00,
2013-01-04 10:34:00,55.4,8.4,30.23,West,276,0.0,0.0,15,0.00,CLR,FEW,0.00,535.5,WeatherDisplay:10.37,2013-01-04 18:34:00,
2013-01-04 10:35:00,55.4,8.4,30.23,West,276,0.0,0.0,15,0.00,CLR,FEW,0.00,535.5,WeatherDisplay:10.37,2013-01-04 18:35:00,
2013-01-04 10:37:00,55.6,8.6,30.23,West,276,0.0,0.0,15,0.00,CLR,FEW,0.00,540.8,WeatherDisplay:10.37,2013-01-04 18:37:00,
2013-01-04 10:39:00,55.7,7.1,30.23,West,276,0.0,0.0,14,0.00,CLR,FEW,0.00,542.9,WeatherDisplay:10.37,2013-01-04 18:39:00,
2013-01-04 10:40:00,55.7,10.1,30.23,West,276,0.0,0.0,16,0.00,CLR,FEW,0.00,546.0,WeatherDisplay:10.37,2013-01-04 18:40:00,
2013-01-04 10:42:00,56.0,8.9,30.23,West,276,0.0,0.0,15,0.00,CLR,FEW,0.00,546.0,WeatherDisplay:10.37,2013-01-04 18:42:00,
2013-01-04 10:44:00,56.2,9.1,30.21,West,276,0.0,0.0,15,0.00,CLR,FEW,0.00,550.2,WeatherDisplay:10.37,2013-01-04 18:44:00,
2013-01-04 10:45:00,56.2,9.1,30.22,West,276,0.0,0.0,15,0.00,CLR,FEW,0.00,550.2,WeatherDisplay:10.37,2013-01-04 18:45:00,
2013-01-04 10:47:00,56.2,7.5,30.21,West,276,0.0,0.0,14,0.00,CLR,FEW,0.00,553.4,WeatherDisplay:10.37,2013-01-04 18:47:00,
2013-01-04 10:50:00,56.2,10.5,30.21,West,276,0.0,0.0,16,0.00,CLR,FEW,0.00,555.5,WeatherDisplay:10.37,2013-01-04 18:50:00,
2013-01-04 10:51:00,56.3,9.2,30.21,West,276,0.0,0.0,15,0.00,CLR,FEW,0.00,557.6,WeatherDisplay:10.37,2013-01-04 18:51:00,
2013-01-04 10:52:00,56.3,10.6,30.21,West,276,0.0,0.0,16,0.00,CLR,FEW,0.00,557.6,WeatherDisplay:10.37,2013-01-04 18:52:00,
2013-01-04 10:55:00,56.5,10.8,30.21,West,276,0.0,0.0,16,0.00,CLR,FEW,0.00,560.7,WeatherDisplay:10.37,2013-01-04 18:55:00,
2013-01-04 10:56:00,56.6,10.9,30.21,West,276,0.0,0.0,16,0.00,CLR,FEW,0.00,562.8,WeatherDisplay:10.37,2013-01-04 18:56:00,
2013-01-04 10:57:00,56.6,9.4,30.21,West,276,0.0,0.0,15,0.00,CLR,FEW,0.00,562.8,WeatherDisplay:10.37,2013-01-04 18:57:00,
2013-01-04 11:00:00,56.9,9.6,30.21,West,276,0.1,1.3,15,0.00,CLR,FEW,0.00,567.0,WeatherDisplay:10.37,2013-01-04 19:00:00,
2013-01-04 11:01:00,56.9,8.1,30.21,West,276,0.0,1.1,14,0.00,CLR,FEW,0.00,567.0,WeatherDisplay:10.37,2013-01-04 19:01:00,
2013-01-04 11:02:00,56.9,9.6,30.21,West,276,0.1,1.3,15,0.00,CLR,FEW,0.00,567.0,WeatherDisplay:10.37,2013-01-04 19:02:00,
2013-01-04 11:03:00,56.9,9.6,30.21,West,276,0.3,1.1,15,0.00,CLR,FEW,0.00,570.1,WeatherDisplay:10.37,2013-01-04 19:03:00,
2013-01-04 11:05:00,56.7,7.9,30.21,West,276,0.0,1.1,14,0.00,CLR,FEW,0.00,570.1,WeatherDisplay:10.37,2013-01-04 19:05:00,
2013-01-04 11:07:00,56.7,7.9,30.21,West,276,0.0,0.0,14,0.00,CLR,FEW,0.00,574.4,WeatherDisplay:10.37,2013-01-04 19:07:00,
2013-01-04 11:08:00,56.7,9.5,30.21,West,276,0.0,0.0,15,0.00,CLR,FEW,0.00,572.3,WeatherDisplay:10.37,2013-01-04 19:08:00,
2013-01-04 11:09:00,56.9,9.6,30.21,West,276,0.0,0.0,15,0.00,CLR,FEW,0.00,572.3,WeatherDisplay:10.37,2013-01-04 19:09:00,
2013-01-04 11:11:00,57.0,9.7,30.21,West,276,0.0,0.0,15,0.00,CLR,FEW,0.00,574.4,WeatherDisplay:10.37,2013-01-04 19:11:00,
2013-01-04 11:13:00,57.3,10.0,30.21,West,274,0.0,0.0,15,0.00,CLR,FEW,0.00,575.4,WeatherDisplay:10.37,2013-01-04 19:13:00,
2013-01-04 11:14:00,57.3,10.0,30.21,West,274,0.0,0.0,15,0.00,CLR,FEW,0.00,575.4,WeatherDisplay:10.37,2013-01-04 19:14:00,
2013-01-04 11:17:00,58.0,10.5,30.20,West,274,0.0,0.0,15,0.00,CLR,FEW,0.00,579.6,WeatherDisplay:10.37,2013-01-04 19:17:00,
2013-01-04 11:18:00,58.3,10.8,30.20,West,274,0.0,0.0,15,0.00,CLR,FEW,0.00,579.6,WeatherDisplay:10.37,2013-01-04 19:18:00,
2013-01-04 11:19:00,58.3,10.8,30.20,West,274,0.0,0.0,15,0.00,CLR,FEW,0.00,579.6,WeatherDisplay:10.37,2013-01-04 19:19:00,
2013-01-04 11:22:00,58.4,7.7,30.20,West,273,0.9,2.3,13,0.00,CLR,FEW,0.00,582.8,WeatherDisplay:10.37,2013-01-04 19:22:00,
2013-01-04 11:23:00,58.4,10.9,30.20,West,273,0.0,3.5,15,0.00,CLR,FEW,0.00,582.8,WeatherDisplay:10.37,2013-01-04 19:23:00,
2013-01-04 11:24:00,58.4,10.9,30.20,West,273,0.0,0.0,15,0.00,CLR,FEW,0.00,582.8,WeatherDisplay:10.37,2013-01-04 19:24:00,
2013-01-04 11:25:00,58.4,10.9,30.20,West,274,0.0,0.0,15,0.00,CLR,FEW,0.00,582.8,WeatherDisplay:10.37,2013-01-04 19:25:00,
2013-01-04 11:27:00,58.6,7.8,30.20,West,273,0.0,0.0,13,0.00,CLR,FEW,0.00,587.0,WeatherDisplay:10.37,2013-01-04 19:27:00,
2013-01-04 11:29:00,58.7,9.5,30.20,West,273,2.1,6.9,14,0.00,CLR,FEW,0.00,587.0,WeatherDisplay:10.37,2013-01-04 19:29:00,
2013-01-04 11:30:00,58.7,6.1,30.20,WSW,252,5.2,6.9,12,0.00,CLR,FEW,0.00,589.1,WeatherDisplay:10.37,2013-01-04 19:30:00,
2013-01-04 11:33:00,58.7,6.1,30.20,WSW,252,0.0,0.0,12,0.00,CLR,FEW,0.00,589.1,WeatherDisplay:10.37,2013-01-04 19:33:00,
2013-01-04 11:34:00,58.7,7.9,30.20,WSW,252,0.0,0.0,13,0.00,CLR,FEW,0.00,589.1,WeatherDisplay:10.37,2013-01-04 19:34:00,
2013-01-04 11:35:00,58.7,7.9,30.20,WSW,255,0.0,0.0,13,0.00,CLR,FEW,0.00,589.1,WeatherDisplay:10.37,2013-01-04 19:35:00,
2013-01-04 11:38:00,58.9,9.7,30.20,WSW,252,0.0,0.0,14,0.00,CLR,FEW,0.00,589.1,WeatherDisplay:10.37,2013-01-04 19:38:00,
2013-01-04 11:39:00,59.0,8.1,30.20,WSW,252,0.0,0.0,13,0.00,CLR,FEW,0.00,589.1,WeatherDisplay:10.37,2013-01-04 19:39:00,
2013-01-04 11:40:00,59.0,8.1,30.20,WSW,252,0.1,0.0,13,0.00,CLR,FEW,0.00,589.1,WeatherDisplay:10.37,2013-01-04 19:40:00,
2013-01-04 11:44:00,59.5,10.2,30.19,WSW,251,0.0,0.0,14,0.00,CLR,FEW,0.00,589.1,WeatherDisplay:10.37,2013-01-04 19:44:00,
2013-01-04 11:45:00,59.5,10.2,30.19,WSW,252,0.0,0.0,14,0.00,CLR,FEW,0.00,589.1,WeatherDisplay:10.37,2013-01-04 19:45:00,
2013-01-04 11:49:00,59.8,7.0,30.19,WSW,255,0.8,3.5,12,0.00,CLR,FEW,0.00,594.3,WeatherDisplay:10.37,2013-01-04 19:49:00,
2013-01-04 11:50:00,59.6,6.8,30.19,WSW,255,0.0,0.0,12,0.00,CLR,FEW,0.00,591.2,WeatherDisplay:10.37,2013-01-04 19:50:00,
2013-01-04 11:51:00,59.6,4.9,30.19,WSW,255,0.0,0.0,11,0.00,CLR,FEW,0.00,591.2,WeatherDisplay:10.37,2013-01-04 19:51:00,
2013-01-04 11:54:00,59.3,6.6,30.19,WSW,256,0.0,0.0,12,0.00,CLR,FEW,0.00,591.2,WeatherDisplay:10.37,2013-01-04 19:54:00,
2013-01-04 11:55:00,59.3,4.7,30.19,WSW,256,0.0,0.0,11,0.00,CLR,FEW,0.00,592.2,WeatherDisplay:10.37,2013-01-04 19:55:00,
2013-01-04 11:57:00,59.3,6.6,30.19,WSW,256,0.0,0.0,12,0.00,CLR,FEW,0.00,591.2,WeatherDisplay:10.37,2013-01-04 19:57:00,
2013-01-04 11:59:00,59.6,6.8,30.19,WSW,255,0.0,0.0,12,0.00,CLR,FEW,0.00,592.2,WeatherDisplay:10.37,2013-01-04 19:59:00,
2013-01-04 12:00:00,59.9,3.1,30.18,WSW,254,1.7,5.8,10,0.00,CLR,FEW,0.00,592.2,WeatherDisplay:10.37,2013-01-04 20:00:00,
2013-01-04 12:02:00,60.1,5.3,30.18,SW,224,0.0,3.5,11,0.00,CLR,FEW,0.00,592.2,WeatherDisplay:10.37,2013-01-04 20:02:00,
2013-01-04 12:04:00,60.4,5.6,30.18,WSW,250,0.9,3.5,11,0.00,CLR,FEW,0.00,592.2,WeatherDisplay:10.37,2013-01-04 20:04:00,
2013-01-04 12:05:00,60.4,5.6,30.18,WSW,246,1.0,0.0,11,0.00,CLR,FEW,0.00,592.2,WeatherDisplay:10.37,2013-01-04 20:05:00,
2013-01-04 12:07:00,60.4,3.5,30.18,SW,225,0.0,0.0,10,0.00,CLR,FEW,0.00,589.1,WeatherDisplay:10.37,2013-01-04 20:07:00,
2013-01-04 12:09:00,60.5,5.6,30.18,West,268,0.0,0.0,11,0.00,CLR,FEW,0.00,591.2,WeatherDisplay:10.37,2013-01-04 20:09:00,
2013-01-04 12:10:00,60.5,5.6,30.18,West,267,0.0,0.0,11,0.00,CLR,FEW,0.00,589.1,WeatherDisplay:10.37,2013-01-04 20:10:00,
2013-01-04 12:12:00,60.7,7.7,30.18,West,267,0.0,0.0,12,0.00,CLR,FEW,0.00,591.2,WeatherDisplay:10.37,2013-01-04 20:12:00,
2013-01-04 12:13:00,60.9,5.9,30.18,West,265,0.0,0.0,11,0.00,CLR,FEW,0.00,587.0,WeatherDisplay:10.37,2013-01-04 20:13:00,
2013-01-04 12:14:00,61.0,7.9,30.17,SW,235,0.2,1.1,12,0.00,CLR,FEW,0.00,587.0,WeatherDisplay:10.37,2013-01-04 20:14:00,
2013-01-04 12:15:00,61.2,8.1,30.17,SW,234,0.0,0.0,12,0.00,CLR,FEW,0.00,587.0,WeatherDisplay:10.37,2013-01-04 20:15:00,
2013-01-04 12:18:00,61.2,4.1,30.17,SW,234,0.0,0.0,10,0.00,CLR,FEW,0.00,584.9,WeatherDisplay:10.37,2013-01-04 20:18:00,
2013-01-04 12:19:00,61.2,6.2,30.17,SW,234,0.0,0.0,11,0.00,CLR,FEW,0.00,587.0,WeatherDisplay:10.37,2013-01-04 20:19:00,
2013-01-04 12:20:00,61.3,8.2,30.17,SW,235,0.0,0.0,12,0.00,CLR,FEW,0.00,584.9,WeatherDisplay:10.37,2013-01-04 20:20:00,
2013-01-04 12:23:00,61.3,8.2,30.17,SW,235,0.0,0.0,12,0.00,CLR,FEW,0.00,582.8,WeatherDisplay:10.37,2013-01-04 20:23:00,
2013-01-04 12:24:00,61.2,6.2,30.17,SW,236,0.0,0.0,11,0.00,CLR,FEW,0.00,581.7,WeatherDisplay:10.37,2013-01-04 20:24:00,
2013-01-04 12:25:00,61.0,3.9,30.17,SW,236,0.0,0.0,10,0.00,CLR,FEW,0.00,582.8,WeatherDisplay:10.37,2013-01-04 20:25:00,
2013-01-04 12:28:00,60.7,7.7,30.17,SW,236,0.0,0.0,12,0.00,CLR,FEW,0.00,579.6,WeatherDisplay:10.37,2013-01-04 20:28:00,
2013-01-04 12:29:00,60.7,7.7,30.16,SW,236,0.0,0.0,12,0.00,CLR,FEW,0.00,579.6,WeatherDisplay:10.37,2013-01-04 20:29:00,
2013-01-04 12:30:00,60.7,9.5,30.16,SW,236,0.0,0.0,13,0.00,CLR,FEW,0.00,579.6,WeatherDisplay:10.37,2013-01-04 20:30:00,
2013-01-04 12:31:00,60.9,7.9,30.16,SW,236,0.0,0.0,12,0.00,CLR,FEW,0.00,579.6,WeatherDisplay:10.37,2013-01-04 20:31:00,
2013-01-04 12:34:00,61.2,6.2,30.16,SW,236,2.6,5.8,11,0.00,CLR,FEW,0.00,577.5,WeatherDisplay:10.37,2013-01-04 20:34:00,
2013-01-04 12:35:00,61.2,6.2,30.16,SW,236,0.0,2.3,11,0.00,CLR,FEW,0.00,575.4,WeatherDisplay:10.37,2013-01-04 20:35:00,
2013-01-04 12:37:00,61.0,3.9,30.16,SW,236,0.0,0.0,10,0.00,CLR,FEW,0.00,575.4,WeatherDisplay:10.37,2013-01-04 20:37:00,
2013-01-04 12:39:00,60.9,5.9,30.16,WSW,237,0.0,0.0,11,0.00,CLR,FEW,0.00,572.3,WeatherDisplay:10.37,2013-01-04 20:39:00,
2013-01-04 12:40:00,60.7,7.7,30.16,WSW,237,0.0,0.0,12,0.00,CLR,FEW,0.00,574.4,WeatherDisplay:10.37,2013-01-04 20:40:00,
2013-01-04 12:42:00,60.7,7.7,30.16,WSW,237,0.0,0.0,12,0.00,CLR,FEW,0.00,568.1,WeatherDisplay:10.37,2013-01-04 20:42:00,
2013-01-04 12:43:00,60.7,7.7,30.16,WSW,237,0.0,0.0,12,0.00,CLR,FEW,0.00,570.1,WeatherDisplay:10.37,2013-01-04 20:43:00,
2013-01-04 12:44:00,60.7,7.7,30.16,WSW,238,0.1,1.3,12,0.00,CLR,FEW,0.00,570.1,WeatherDisplay:10.37,2013-01-04 20:44:00,
2013-01-04 12:46:00,60.7,5.8,30.15,WSW,238,0.0,0.0,11,0.00,CLR,FEW,0.00,567.0,WeatherDisplay:10.37,2013-01-04 20:46:00,
2013-01-04 12:47:00,60.9,7.9,30.15,WSW,238,0.1,1.1,12,0.00,CLR,FEW,0.00,567.0,WeatherDisplay:10.37,2013-01-04 20:47:00,
2013-01-04 12:49:00,61.2,6.2,30.15,SW,236,0.0,3.5,11,0.00,CLR,FEW,0.00,562.8,WeatherDisplay:10.37,2013-01-04 20:49:00,
2013-01-04 12:50:00,61.2,8.1,30.15,SW,236,0.0,3.5,12,0.00,CLR,FEW,0.00,562.8,WeatherDisplay:10.37,2013-01-04 20:50:00,
2013-01-04 12:52:00,61.5,8.3,30.15,SW,236,0.0,0.0,12,0.00,CLR,FEW,0.00,560.7,WeatherDisplay:10.37,2013-01-04 20:52:00,
2013-01-04 12:53:00,61.5,8.3,30.15,SW,236,0.0,0.0,12,0.00,CLR,FEW,0.00,560.7,WeatherDisplay:10.37,2013-01-04 20:53:00,
2013-01-04 12:54:00,61.6,8.4,30.15,SW,236,1.1,3.9,12,0.00,CLR,FEW,0.00,557.6,WeatherDisplay:10.37,2013-01-04 20:54:00,
2013-01-04 12:55:00,61.6,4.4,30.15,SW,236,2.9,3.5,10,0.00,CLR,FEW,0.00,559.7,WeatherDisplay:10.37,2013-01-04 20:55:00,
2013-01-04 12:57:00,61.5,4.3,30.15,WSW,237,0.0,0.0,10,0.00,CLR,FEW,0.00,557.6,WeatherDisplay:10.37,2013-01-04 20:57:00,
2013-01-04 12:58:00,61.5,6.4,30.15,WSW,240,1.8,5.2,11,0.00,CLR,FEW,0.00,555.5,WeatherDisplay:10.37,2013-01-04 20:58:00,
2013-01-04 13:00:00,61.2,6.2,30.15,SSW,202,4.4,5.8,11,0.00,CLR,FEW,0.00,553.4,WeatherDisplay:10.37,2013-01-04 21:00:00,
2013-01-04 13:02:00,61.2,4.1,30.15,SW,217,4.2,5.8,10,0.00,CLR,FEW,0.00,552.3,WeatherDisplay:10.37,2013-01-04 21:02:00,
2013-01-04 13:03:00,61.3,6.3,30.15,SW,229,3.2,5.8,11,0.00,CLR,FEW,0.00,552.3,WeatherDisplay:10.37,2013-01-04 21:03:00,
2013-01-04 13:05:00,61.3,8.2,30.15,WSW,244,0.0,2.3,12,0.00,CLR,FEW,0.00,548.1,WeatherDisplay:10.37,2013-01-04 21:05:00,
2013-01-04 13:07:00,61.5,6.4,30.15,WSW,237,0.0,5.8,11,0.00,CLR,FEW,0.00,545.0,WeatherDisplay:10.37,2013-01-04 21:07:00,
2013-01-04 13:09:00,61.5,4.3,30.15,WSW,237,0.0,0.0,10,0.00,CLR,FEW,0.00,542.9,WeatherDisplay:10.37,2013-01-04 21:09:00,
2013-01-04 13:10:00,61.6,6.5,30.15,WSW,237,0.0,0.0,11,0.00,CLR,FEW,0.00,540.8,WeatherDisplay:10.37,2013-01-04 21:10:00,
2013-01-04 13:12:00,62.1,6.9,30.15,WSW,251,5.1,8.1,11,0.00,CLR,FEW,0.00,538.7,WeatherDisplay:10.37,2013-01-04 21:12:00,
2013-01-04 13:14:00,62.1,4.8,30.15,WSW,251,2.8,5.8,10,0.00,CLR,FEW,0.00,537.6,WeatherDisplay:10.37,2013-01-04 21:14:00,
2013-01-04 13:15:00,62.0,4.7,30.15,WSW,249,7.8,9.2,10,0.00,CLR,FEW,0.00,533.4,WeatherDisplay:10.37,2013-01-04 21:15:00,
2013-01-04 13:16:00,62.0,4.7,30.15,WSW,253,6.1,9.2,10,0.00,CLR,FEW,0.00,531.3,WeatherDisplay:10.37,2013-01-04 21:16:00,
2013-01-04 13:17:00,61.8,2.3,30.15,WSW,250,3.8,9.1,9,0.00,CLR,FEW,0.00,531.3,WeatherDisplay:10.37,2013-01-04 21:17:00,
2013-01-04 13:19:00,62.0,6.8,30.15,WSW,250,1.8,9.2,11,0.00,CLR,FEW,0.00,529.2,WeatherDisplay:10.37,2013-01-04 21:19:00,
2013-01-04 13:21:00,62.0,2.4,30.15,WSW,250,2.6,6.9,9,0.00,CLR,FEW,0.00,526.1,WeatherDisplay:10.37,2013-01-04 21:21:00,
2013-01-04 13:23:00,62.1,4.8,30.15,WSW,253,1.2,2.3,10,0.00,CLR,FEW,0.00,521.9,WeatherDisplay:10.37,2013-01-04 21:23:00,
2013-01-04 13:24:00,62.1,4.8,30.15,SW,224,0.6,3.5,10,0.00,CLR,FEW,0.00,520.8,WeatherDisplay:10.37,2013-01-04 21:24:00,
2013-01-04 13:26:00,62.3,4.9,30.15,SW,229,0.0,0.0,10,0.00,CLR,FEW,0.00,518.7,WeatherDisplay:10.37,2013-01-04 21:26:00,
2013-01-04 13:28:00,62.6,2.9,30.15,SW,230,0.0,0.0,9,0.00,CLR,FEW,0.00,514.5,WeatherDisplay:10.37,2013-01-04 21:28:00,
2013-01-04 13:29:00,62.6,2.9,30.15,SW,230,0.0,0.0,9,0.00,CLR,FEW,0.00,514.5,WeatherDisplay:10.37,2013-01-04 21:29:00,
2013-01-04 13:32:00,62.4,2.7,30.15,SW,230,2.0,5.8,9,0.00,CLR,FEW,0.00,507.2,WeatherDisplay:10.37,2013-01-04 21:32:00,
2013-01-04 13:34:00,62.3,0.1,30.15,SW,231,0.0,5.8,8,0.00,CLR,FEW,0.00,504.0,WeatherDisplay:10.37,2013-01-04 21:34:00,
2013-01-04 13:35:00,62.3,0.1,30.15,SW,231,1.0,0.0,8,0.00,CLR,FEW,0.00,504.0,WeatherDisplay:10.37,2013-01-04 21:35:00,
2013-01-04 13:39:00,62.1,2.5,30.15,WSW,246,0.0,0.0,9,0.00,CLR,FEW,0.00,496.7,WeatherDisplay:10.37,2013-01-04 21:39:00,
2013-01-04 13:40:00,62.1,0.0,30.15,WSW,254,1.2,2.6,8,0.00,CLR,FEW,0.00,496.7,WeatherDisplay:10.37,2013-01-04 21:40:00,
2013-01-04 13:44:00,61.8,-3.1,30.15,WSW,250,7.8,9.2,7,0.00,CLR,FEW,0.00,487.2,WeatherDisplay:10.37,2013-01-04 21:44:00,
2013-01-04 13:45:00,61.8,-3.1,30.15,WSW,250,4.5,9.2,7,0.00,CLR,FEW,0.00,485.1,WeatherDisplay:10.37,2013-01-04 21:45:00,
2013-01-04 13:46:00,61.8,2.3,30.15,WSW,249,0.0,6.9,9,0.00,CLR,FEW,0.00,484.1,WeatherDisplay:10.37,2013-01-04 21:46:00,
2013-01-04 13:49:00,61.6,-0.4,30.15,WSW,250,0.0,0.0,8,0.00,CLR,FEW,0.00,479.9,WeatherDisplay:10.37,2013-01-04 21:49:00,
2013-01-04 13:50:00,61.6,-0.4,30.15,WSW,250,0.0,0.0,8,0.00,CLR,FEW,0.00,476.7,WeatherDisplay:10.37,2013-01-04 21:50:00,
2013-01-04 13:52:00,61.6,-3.2,30.15,WSW,250,0.0,0.0,7,0.00,CLR,FEW,0.00,472.5,WeatherDisplay:10.37,2013-01-04 21:52:00,
2013-01-04 13:54:00,61.6,-0.4,30.15,WSW,250,0.0,0.0,8,0.00,CLR,FEW,0.00,465.2,WeatherDisplay:10.37,2013-01-04 21:54:00,
2013-01-04 13:55:00,61.6,-0.4,30.15,WSW,250,0.0,0.0,8,0.00,CLR,FEW,0.00,465.2,WeatherDisplay:10.37,2013-01-04 21:55:00,
2013-01-04 13:57:00,62.0,-2.9,30.15,WSW,248,5.5,6.9,7,0.00,CLR,FEW,0.00,461.0,WeatherDisplay:10.37,2013-01-04 21:57:00,
2013-01-04 13:59:00,62.1,0.0,30.15,WSW,248,0.0,6.9,8,0.00,CLR,FEW,0.00,459.9,WeatherDisplay:10.37,2013-01-04 21:59:00,
2013-01-04 14:01:00,62.1,-2.9,30.15,WSW,247,0.1,1.1,7,0.00,CLR,FEW,0.00,453.6,WeatherDisplay:10.37,2013-01-04 22:01:00,
2013-01-04 14:03:00,62.1,-6.1,30.15,WSW,247,1.1,3.5,6,0.00,CLR,FEW,0.00,450.5,WeatherDisplay:10.37,2013-01-04 22:03:00,
2013-01-04 14:04:00,62.3,-5.9,30.15,WSW,247,0.0,0.0,6,0.00,CLR,FEW,0.00,448.4,WeatherDisplay:10.37,2013-01-04 22:04:00,
2013-01-04 14:06:00,62.4,-5.9,30.15,WSW,247,0.1,1.1,6,0.00,CLR,FEW,0.00,443.1,WeatherDisplay:10.37,2013-01-04 22:06:00,
2013-01-04 14:08:00,62.7,-5.6,30.15,WSW,247,0.0,0.0,6,0.00,CLR,FEW,0.00,438.9,WeatherDisplay:10.37,2013-01-04 22:08:00,
2013-01-04 14:09:00,62.6,-2.5,30.15,WSW,247,0.8,3.9,7,0.00,CLR,FEW,0.00,435.8,WeatherDisplay:10.37,2013-01-04 22:09:00,
2013-01-04 14:10:00,62.6,-2.5,30.15,WSW,247,0.8,0.0,7,0.00,CLR,FEW,0.00,435.8,WeatherDisplay:10.37,2013-01-04 22:10:00,
2013-01-04 14:11:00,62.6,-2.5,30.15,WSW,247,0.0,0.0,7,0.00,CLR,FEW,0.00,433.7,WeatherDisplay:10.37,2013-01-04 22:11:00,
2013-01-04 14:14:00,62.6,-2.5,30.14,WSW,247,0.0,0.0,7,0.00,CLR,FEW,0.00,426.3,WeatherDisplay:10.37,2013-01-04 22:14:00,
2013-01-04 14:15:00,62.6,-2.5,30.14,WSW,247,0.0,0.0,7,0.00,CLR,FEW,0.00,423.2,WeatherDisplay:10.37,2013-01-04 22:15:00,
2013-01-04 14:16:00,62.7,0.4,30.14,WSW,247,0.1,1.1,8,0.00,CLR,FEW,0.00,419.0,WeatherDisplay:10.37,2013-01-04 22:16:00,
2013-01-04 14:19:00,63.1,0.7,30.14,WSW,247,0.8,3.5,8,0.00,CLR,FEW,0.00,392.7,WeatherDisplay:10.37,2013-01-04 22:19:00,
2013-01-04 14:20:00,63.2,0.8,30.14,WSW,247,0.1,3.5,8,0.00,CLR,FEW,0.00,384.3,WeatherDisplay:10.37,2013-01-04 22:20:00,
2013-01-04 14:21:00,63.4,0.9,30.14,WSW,247,0.7,5.2,8,0.00,CLR,FEW,0.00,407.4,WeatherDisplay:10.37,2013-01-04 22:21:00,
2013-01-04 14:24:00,63.5,3.6,30.14,WSW,247,1.5,9.1,9,0.00,CLR,FEW,0.00,402.2,WeatherDisplay:10.37,2013-01-04 22:24:00,
2013-01-04 14:25:00,63.5,3.6,30.14,WSW,247,5.3,9.2,9,0.00,CLR,FEW,0.00,399.0,WeatherDisplay:10.37,2013-01-04 22:25:00,
2013-01-04 14:27:00,63.4,0.9,30.14,WSW,247,0.0,0.0,8,0.00,CLR,FEW,0.00,394.8,WeatherDisplay:10.37,2013-01-04 22:27:00,
2013-01-04 14:30:00,63.2,-2.0,30.15,WSW,247,0.0,0.0,7,0.00,CLR,FEW,0.00,385.4,WeatherDisplay:10.37,2013-01-04 22:30:00,
2013-01-04 14:31:00,63.2,3.3,30.15,WSW,247,0.0,0.0,9,0.00,CLR,FEW,0.00,384.3,WeatherDisplay:10.37,2013-01-04 22:31:00,
2013-01-04 14:32:00,63.2,0.8,30.15,WSW,247,0.0,0.0,8,0.00,CLR,FEW,0.00,363.3,WeatherDisplay:10.37,2013-01-04 22:32:00,
2013-01-04 14:35:00,62.9,-2.3,30.15,WSW,247,0.0,0.0,7,0.00,CLR,FEW,0.00,374.9,WeatherDisplay:10.37,2013-01-04 22:35:00,
2013-01-04 14:36:00,62.9,0.6,30.15,WSW,247,0.0,0.0,8,0.00,CLR,FEW,0.00,370.7,WeatherDisplay:10.37,2013-01-04 22:36:00,
2013-01-04 14:37:00,62.7,0.4,30.15,WSW,247,0.0,2.3,8,0.00,CLR,FEW,0.00,369.6,WeatherDisplay:10.37,2013-01-04 22:37:00,
2013-01-04 14:40:00,62.6,0.3,30.15,WSW,247,0.0,0.0,8,0.00,CLR,FEW,0.00,360.2,WeatherDisplay:10.37,2013-01-04 22:40:00,
2013-01-04 14:41:00,62.4,0.2,30.15,WSW,247,0.0,0.0,8,0.00,CLR,FEW,0.00,358.1,WeatherDisplay:10.37,2013-01-04 22:41:00,
2013-01-04 14:43:00,62.4,0.2,30.15,WSW,247,0.0,0.0,8,0.00,CLR,FEW,0.00,352.8,WeatherDisplay:10.37,2013-01-04 22:43:00,
2013-01-04 14:45:00,62.3,2.6,30.15,WSW,247,0.0,0.0,9,0.00,CLR,FEW,0.00,346.5,WeatherDisplay:10.37,2013-01-04 22:45:00,
2013-01-04 14:46:00,62.3,0.1,30.15,WSW,247,0.0,0.0,8,0.00,CLR,FEW,0.00,346.5,WeatherDisplay:10.37,2013-01-04 22:46:00,
2013-01-04 14:47:00,62.3,4.9,30.15,WSW,247,0.0,0.0,10,0.00,CLR,FEW,0.00,343.4,WeatherDisplay:10.37,2013-01-04 22:47:00,
2013-01-04 14:48:00,62.4,0.2,30.15,WSW,247,0.0,0.0,8,0.00,CLR,FEW,0.00,339.2,WeatherDisplay:10.37,2013-01-04 22:48:00,
2013-01-04 14:50:00,62.4,5.0,30.15,WSW,247,0.0,0.0,10,0.00,CLR,FEW,0.00,333.9,WeatherDisplay:10.37,2013-01-04 22:50:00,
2013-01-04 14:51:00,62.4,2.7,30.15,WSW,247,0.0,0.0,9,0.00,CLR,FEW,0.00,331.8,WeatherDisplay:10.37,2013-01-04 22:51:00,
2013-01-04 14:52:00,62.6,2.9,30.15,WSW,247,0.0,0.0,9,0.00,CLR,FEW,0.00,330.8,WeatherDisplay:10.37,2013-01-04 22:52:00,
2013-01-04 14:53:00,62.6,0.3,30.15,WSW,247,0.0,0.0,8,0.00,CLR,FEW,0.00,330.8,WeatherDisplay:10.37,2013-01-04 22:53:00,
2013-01-04 14:56:00,62.4,-2.6,30.15,WSW,245,0.5,3.5,7,0.00,CLR,FEW,0.00,317.1,WeatherDisplay:10.37,2013-01-04 22:56:00,
2013-01-04 14:57:00,62.4,-2.6,30.15,WSW,245,0.0,3.5,7,0.00,CLR,FEW,0.00,317.1,WeatherDisplay:10.37,2013-01-04 22:57:00,
2013-01-04 14:58:00,62.4,-2.6,30.15,WSW,245,0.0,0.0,7,0.00,CLR,FEW,0.00,311.9,WeatherDisplay:10.37,2013-01-04 22:58:00,
2013-01-04 14:59:00,62.4,0.2,30.15,WSW,245,0.0,0.0,8,0.00,CLR,FEW,0.00,309.8,WeatherDisplay:10.37,2013-01-04 22:59:00,
2013-01-04 15:01:00,62.6,0.3,30.15,WSW,245,0.0,0.0,8,0.00,CLR,FEW,0.00,182.7,WeatherDisplay:10.37,2013-01-04 23:01:00,
2013-01-04 15:03:00,62.7,-5.6,30.15,WSW,245,0.0,0.0,6,0.00,CLR,FEW,0.00,278.3,WeatherDisplay:10.37,2013-01-04 23:03:00,
2013-01-04 15:04:00,62.7,-2.4,30.15,WSW,245,0.0,0.0,7,0.00,CLR,FEW,0.00,295.1,WeatherDisplay:10.37,2013-01-04 23:04:00,
2013-01-04 15:06:00,62.9,3.1,30.15,WSW,245,0.0,0.0,9,0.00,CLR,FEW,0.00,289.8,WeatherDisplay:10.37,2013-01-04 23:06:00,
2013-01-04 15:07:00,62.9,3.1,30.15,WSW,245,0.0,0.0,9,0.00,CLR,FEW,0.00,287.7,WeatherDisplay:10.37,2013-01-04 23:07:00,
2013-01-04 15:09:00,62.7,0.4,30.15,WSW,245,0.0,0.0,8,0.00,CLR,FEW,0.00,280.4,WeatherDisplay:10.37,2013-01-04 23:09:00,
2013-01-04 15:10:00,62.7,0.4,30.15,WSW,245,0.0,0.0,8,0.00,CLR,FEW,0.00,278.3,WeatherDisplay:10.37,2013-01-04 23:10:00,
2013-01-04 15:12:00,62.6,5.2,30.15,WSW,245,0.0,0.0,10,0.00,CLR,FEW,0.00,273.0,WeatherDisplay:10.37,2013-01-04 23:12:00,
2013-01-04 15:14:00,62.6,2.9,30.15,WSW,245,0.0,1.1,9,0.00,CLR,FEW,0.00,265.7,WeatherDisplay:10.37,2013-01-04 23:14:00,
2013-01-04 15:15:00,62.6,5.2,30.15,WSW,245,0.0,0.0,10,0.00,CLR,FEW,0.00,263.6,WeatherDisplay:10.37,2013-01-04 23:15:00,
2013-01-04 15:17:00,62.7,5.2,30.15,WSW,245,2.3,5.8,10,0.00,CLR,FEW,0.00,260.4,WeatherDisplay:10.37,2013-01-04 23:17:00,
2013-01-04 15:19:00,62.7,2.9,30.15,WSW,245,1.3,3.5,9,0.00,CLR,FEW,0.00,251.0,WeatherDisplay:10.37,2013-01-04 23:19:00,
2013-01-04 15:22:00,62.7,2.9,30.15,WSW,245,0.1,1.1,9,0.00,CLR,FEW,0.00,247.8,WeatherDisplay:10.37,2013-01-04 23:22:00,
2013-01-04 15:26:00,62.4,2.7,30.15,WSW,245,0.0,0.0,9,0.00,CLR,FEW,0.00,231.0,WeatherDisplay:10.37,2013-01-04 23:26:00,
2013-01-04 15:27:00,62.4,0.2,30.15,WSW,245,0.0,0.0,8,0.00,CLR,FEW,0.00,231.0,WeatherDisplay:10.37,2013-01-04 23:27:00,
2013-01-04 15:31:00,62.3,0.1,30.15,WSW,245,0.0,0.0,8,0.00,CLR,FEW,0.00,216.3,WeatherDisplay:10.37,2013-01-04 23:31:00,
2013-01-04 15:32:00,62.3,0.1,30.15,WSW,245,0.0,0.0,8,0.00,CLR,FEW,0.00,216.3,WeatherDisplay:10.37,2013-01-04 23:32:00,
2013-01-04 15:37:00,62.7,2.9,30.15,WSW,244,1.0,5.2,9,0.00,CLR,FEW,0.00,202.7,WeatherDisplay:10.37,2013-01-04 23:37:00,
2013-01-04 15:39:00,62.6,2.9,30.15,WSW,244,0.0,3.5,9,0.00,CLR,FEW,0.00,195.3,WeatherDisplay:10.37,2013-01-04 23:39:00,
2013-01-04 15:42:00,62.6,5.2,30.15,WSW,244,0.3,2.3,10,0.00,CLR,FEW,0.00,188.0,WeatherDisplay:10.37,2013-01-04 23:42:00,
2013-01-04 15:44:00,62.6,2.9,30.15,WSW,244,0.0,0.0,9,0.00,CLR,FEW,0.00,182.7,WeatherDisplay:10.37,2013-01-04 23:44:00,
2013-01-04 15:46:00,62.4,0.2,30.15,WSW,244,0.0,2.3,8,0.00,CLR,FEW,0.00,173.3,WeatherDisplay:10.37,2013-01-04 23:46:00,
2013-01-04 15:47:00,62.4,0.2,30.15,WSW,244,0.0,0.0,8,0.00,CLR,FEW,0.00,173.3,WeatherDisplay:10.37,2013-01-04 23:47:00,
2013-01-04 15:49:00,62.1,2.5,30.15,WSW,244,0.0,0.0,9,0.00,CLR,FEW,0.00,168.0,WeatherDisplay:10.37,2013-01-04 23:49:00,
2013-01-04 15:51:00,61.8,2.3,30.15,WSW,244,1.4,5.8,9,0.00,CLR,FEW,0.00,160.7,WeatherDisplay:10.37,2013-01-04 23:51:00,
2013-01-04 15:52:00,61.6,2.1,30.15,WSW,244,0.0,5.8,9,0.00,CLR,FEW,0.00,158.6,WeatherDisplay:10.37,2013-01-04 23:52:00,
2013-01-04 15:53:00,61.6,-0.4,30.15,WSW,244,0.0,0.0,8,0.00,CLR,FEW,0.00,156.5,WeatherDisplay:10.37,2013-01-04 23:53:00,
2013-01-04 15:54:00,61.5,2.0,30.15,WSW,244,0.0,0.0,9,0.00,CLR,FEW,0.00,153.3,WeatherDisplay:10.37,2013-01-04 23:54:00,
2013-01-04 15:56:00,61.5,4.3,30.15,WSW,244,0.0,0.0,10,0.00,CLR,FEW,0.00,146.0,WeatherDisplay:10.37,2013-01-04 23:56:00,
2013-01-04 15:57:00,61.5,2.0,30.15,WSW,244,0.0,0.0,9,0.00,CLR,FEW,0.00,143.8,WeatherDisplay:10.37,2013-01-04 23:57:00,
2013-01-04 15:59:00,61.5,2.0,30.15,WSW,244,0.0,0.0,9,0.00,CLR,FEW,0.00,140.7,WeatherDisplay:10.37,2013-01-04 23:59:00,
2013-01-04 16:02:00,61.8,2.3,30.15,WSW,244,0.0,0.0,9,0.00,CLR,FEW,0.00,131.3,WeatherDisplay:10.37,2013-01-05 00:02:00,
2013-01-04 16:04:00,61.8,2.3,30.15,WSW,244,0.0,0.0,9,0.00,CLR,FEW,0.00,126.0,WeatherDisplay:10.37,2013-01-05 00:04:00,
2013-01-04 16:05:00,61.8,2.3,30.15,WSW,244,0.0,0.0,9,0.00,CLR,FEW,0.00,123.9,WeatherDisplay:10.37,2013-01-05 00:05:00,
2013-01-04 16:07:00,61.6,-0.4,30.15,WSW,244,0.0,0.0,8,0.00,CLR,FEW,0.00,116.6,WeatherDisplay:10.37,2013-01-05 00:07:00,
2013-01-04 16:09:00,61.5,2.0,30.15,WSW,244,0.0,0.0,9,0.00,CLR,FEW,0.00,112.4,WeatherDisplay:10.37,2013-01-05 00:09:00,
2013-01-04 16:10:00,61.5,4.3,30.15,WSW,244,0.0,0.0,10,0.00,CLR,FEW,0.00,109.2,WeatherDisplay:10.37,2013-01-05 00:10:00,
2013-01-04 16:12:00,61.5,-0.5,30.15,WSW,244,0.0,0.0,8,0.00,CLR,FEW,0.00,101.9,WeatherDisplay:10.37,2013-01-05 00:12:00,
2013-01-04 16:13:00,61.3,1.9,30.15,WSW,244,0.0,0.0,9,0.00,CLR,FEW,0.00,97.7,WeatherDisplay:10.37,2013-01-05 00:13:00,
2013-01-04 16:14:00,61.5,4.3,30.15,WSW,244,0.0,0.0,10,0.00,CLR,FEW,0.00,97.7,WeatherDisplay:10.37,2013-01-05 00:14:00,
2013-01-04 16:15:00,61.3,1.9,30.15,WSW,244,0.0,0.0,9,0.00,CLR,FEW,0.00,92.4,WeatherDisplay:10.37,2013-01-05 00:15:00,
2013-01-04 16:18:00,61.3,-0.6,30.15,WSW,244,0.0,0.0,8,0.00,CLR,FEW,0.00,85.0,WeatherDisplay:10.37,2013-01-05 00:18:00,
2013-01-04 16:20:00,61.2,1.8,30.15,WSW,244,0.0,0.0,9,0.00,CLR,FEW,0.00,79.8,WeatherDisplay:10.37,2013-01-05 00:20:00,
2013-01-04 16:23:00,60.9,1.6,30.15,WSW,244,0.0,0.0,9,0.00,CLR,FEW,0.00,70.4,WeatherDisplay:10.37,2013-01-05 00:23:00,
2013-01-04 16:25:00,60.7,3.7,30.15,WSW,244,0.0,0.0,10,0.00,CLR,FEW,0.00,60.9,WeatherDisplay:10.37,2013-01-05 00:25:00,
2013-01-04 16:26:00,60.7,5.8,30.15,WSW,244,0.0,0.0,11,0.00,CLR,FEW,0.00,60.9,WeatherDisplay:10.37,2013-01-05 00:26:00,
2013-01-04 16:28:00,60.7,5.8,30.15,WSW,244,0.0,0.0,11,0.00,CLR,FEW,0.00,51.5,WeatherDisplay:10.37,2013-01-05 00:28:00,
2013-01-04 16:29:00,60.7,3.7,30.15,WSW,244,0.0,0.0,10,0.00,CLR,FEW,0.00,51.5,WeatherDisplay:10.37,2013-01-05 00:29:00,
2013-01-04 16:31:00,60.7,3.7,30.15,WSW,244,0.0,0.0,10,0.00,CLR,FEW,0.00,46.2,WeatherDisplay:10.37,2013-01-05 00:31:00,
2013-01-04 16:33:00,60.9,3.9,30.15,WSW,244,0.0,0.0,10,0.00,CLR,FEW,0.00,38.9,WeatherDisplay:10.37,2013-01-05 00:33:00,
2013-01-04 16:35:00,60.9,11.3,30.15,WSW,244,0.0,0.0,14,0.00,CLR,FEW,0.00,36.8,WeatherDisplay:10.37,2013-01-05 00:35:00,
2013-01-04 16:36:00,60.9,9.6,30.15,WSW,244,0.0,0.0,13,0.00,CLR,FEW,0.00,34.7,WeatherDisplay:10.37,2013-01-05 00:36:00,
2013-01-04 16:38:00,60.7,11.1,30.15,WSW,244,0.0,0.0,14,0.00,CLR,FEW,0.00,31.5,WeatherDisplay:10.37,2013-01-05 00:38:00,
2013-01-04 16:41:00,60.1,10.7,30.15,WSW,244,0.0,0.0,14,0.00,CLR,FEW,0.00,24.2,WeatherDisplay:10.37,2013-01-05 00:41:00,
2013-01-04 16:42:00,59.9,10.5,30.15,WSW,244,0.0,0.0,14,0.00,CLR,FEW,0.00,22.1,WeatherDisplay:10.37,2013-01-05 00:42:00,
2013-01-04 16:43:00,59.6,13.3,30.15,WSW,244,0.0,0.0,16,0.00,CLR,FEW,0.00,20.0,WeatherDisplay:10.37,2013-01-05 00:43:00,
2013-01-04 16:44:00,59.3,13.0,30.15,WSW,244,0.0,0.0,16,0.00,CLR,FEW,0.00,18.9,WeatherDisplay:10.37,2013-01-05 00:44:00,
2013-01-04 16:46:00,58.6,13.9,30.15,WSW,244,0.0,0.0,17,0.00,CLR,FEW,0.00,16.8,WeatherDisplay:10.37,2013-01-05 00:46:00,
2013-01-04 16:48:00,58.0,10.5,30.15,WSW,244,0.0,0.0,15,0.00,CLR,FEW,0.00,11.6,WeatherDisplay:10.37,2013-01-05 00:48:00,
2013-01-04 16:49:00,57.8,13.2,30.15,WSW,244,0.0,0.0,17,0.00,CLR,FEW,0.00,11.6,WeatherDisplay:10.37,2013-01-05 00:49:00,
2013-01-04 16:50:00,57.5,11.6,30.15,WSW,244,0.0,0.0,16,0.00,CLR,FEW,0.00,7.4,WeatherDisplay:10.37,2013-01-05 00:50:00,
2013-01-04 16:51:00,57.5,13.0,30.15,WSW,244,0.0,0.0,17,0.00,CLR,FEW,0.00,5.3,WeatherDisplay:10.37,2013-01-05 00:51:00,
2013-01-04 16:54:00,56.7,10.9,30.15,WSW,244,0.0,0.0,16,0.00,OVC,FEW,0.00,0.0,WeatherDisplay:10.37,2013-01-05 00:54:00,
2013-01-04 16:56:00,56.2,10.5,30.15,WSW,244,0.0,0.0,16,0.00,OVC,FEW,0.00,0.0,WeatherDisplay:10.37,2013-01-05 00:56:00,
2013-01-04 16:59:00,55.4,8.4,30.15,WSW,244,0.0,0.0,15,0.00,OVC,FEW,0.00,0.0,WeatherDisplay:10.37,2013-01-05 00:59:00,
2013-01-04 17:01:00,55.0,6.6,30.15,WSW,244,0.0,0.0,14,0.00,CLR,FEW,0.00,0.0,WeatherDisplay:10.37,2013-01-05 01:01:00,
2013-01-04 17:02:00,54.8,6.4,30.15,WSW,244,0.0,0.0,14,0.00,CLR,FEW,0.00,0.0,WeatherDisplay:10.37,2013-01-05 01:02:00,
2013-01-04 17:04:00,54.5,6.2,30.15,WSW,244,0.0,0.0,14,0.00,CLR,FEW,0.00,0.0,WeatherDisplay:10.37,2013-01-05 01:04:00,
2013-01-04 17:05:00,54.2,7.5,30.15,WSW,244,0.0,0.0,15,0.00,CLR,FEW,0.00,0.0,WeatherDisplay:10.37,2013-01-05 01:05:00,
2013-01-04 17:07:00,54.1,5.9,30.15,WSW,244,0.0,0.0,14,0.00,CLR,FEW,0.00,0.0,WeatherDisplay:10.37,2013-01-05 01:07:00,
2013-01-04 17:09:00,53.9,7.2,30.15,WSW,244,0.0,0.0,15,0.00,CLR,FEW,0.00,0.0,WeatherDisplay:10.37,2013-01-05 01:09:00,
2013-01-04 17:10:00,53.5,8.3,30.15,WSW,244,0.0,0.0,16,0.00,CLR,FEW,0.00,0.0,WeatherDisplay:10.37,2013-01-05 01:10:00,
2013-01-04 17:12:00,52.2,13.4,30.15,East,96,0.0,1.1,21,0.00,CLR,FEW,0.00,0.0,WeatherDisplay:10.37,2013-01-05 01:12:00,
2013-01-04 17:13:00,51.6,11.8,30.15,East,95,0.0,0.0,20,0.00,CLR,FEW,0.00,0.0,WeatherDisplay:10.37,2013-01-05 01:13:00,
2013-01-04 17:15:00,50.4,11.9,30.15,East,95,0.0,0.0,21,0.00,CLR,FEW,0.00,0.0,WeatherDisplay:10.37,2013-01-05 01:15:00,
2013-01-04 17:17:00,49.2,10.9,30.15,ESE,107,6.3,8.1,21,0.00,CLR,FEW,0.00,0.0,WeatherDisplay:10.37,2013-01-05 01:17:00,
2013-01-04 17:18:00,49.1,10.8,30.15,ESE,106,2.3,8.1,21,0.00,CLR,FEW,0.00,0.0,WeatherDisplay:10.37,2013-01-05 01:18:00,
2013-01-04 17:20:00,48.9,9.5,30.15,ESE,107,4.0,10.4,20,0.00,CLR,FEW,0.00,0.0,WeatherDisplay:10.37,2013-01-05 01:20:00,
2013-01-04 17:22:00,48.8,9.4,30.15,ESE,102,1.3,3.9,20,0.00,CLR,FEW,0.00,0.0,WeatherDisplay:10.37,2013-01-05 01:22:00,
2013-01-04 17:23:00,48.8,9.4,30.15,East,99,4.4,7.8,20,0.00,CLR,FEW,0.00,0.0,WeatherDisplay:10.37,2013-01-05 01:23:00,
2013-01-04 17:25:00,48.9,9.5,30.15,East,95,1.8,6.9,20,0.00,CLR,FEW,0.00,0.0,WeatherDisplay:10.37,2013-01-05 01:25:00,
2013-01-04 17:26:00,48.9,9.5,30.15,ESE,103,4.6,6.9,20,0.00,CLR,FEW,0.00,0.0,WeatherDisplay:10.37,2013-01-05 01:26:00,
2013-01-04 17:27:00,49.2,8.6,30.15,ESE,104,6.1,11.5,19,0.00,CLR,FEW,0.00,0.0,WeatherDisplay:10.37,2013-01-05 01:27:00,
2013-01-04 17:30:00,49.4,9.9,30.15,ESE,102,7.3,10.4,20,0.00,CLR,FEW,0.00,0.0,WeatherDisplay:10.37,2013-01-05 01:30:00,
2013-01-04 17:31:00,49.4,8.8,30.15,ESE,118,8.4,9.2,19,0.00,CLR,FEW,0.00,0.0,WeatherDisplay:10.37,2013-01-05 01:31:00,
2013-01-04 17:33:00,49.6,9.0,30.15,ESE,114,3.3,9.2,19,0.00,CLR,FEW,0.00,0.0,WeatherDisplay:10.37,2013-01-05 01:33:00,
2013-01-04 17:36:00,50.1,6.9,30.15,ESE,116,7.8,16.1,17,0.00,CLR,FEW,0.00,0.0,WeatherDisplay:10.37,2013-01-05 01:36:00,
2013-01-04 17:37:00,50.4,5.8,30.15,ESE,119,5.9,10.4,16,0.00,CLR,FEW,0.00,0.0,WeatherDisplay:10.37,2013-01-05 01:37:00,
2013-01-04 17:38:00,50.4,7.1,30.15,ESE,117,2.2,6.9,17,0.00,CLR,FEW,0.00,0.0,WeatherDisplay:10.37,2013-01-05 01:38:00,
2013-01-04 17:41:00,50.1,6.9,30.15,ESE,111,3.0,8.1,17,0.00,CLR,FEW,0.00,0.0,WeatherDisplay:10.37,2013-01-05 01:41:00,
2013-01-04 17:42:00,49.9,6.7,30.15,ESE,121,5.9,9.2,17,0.00,CLR,FEW,0.00,0.0,WeatherDisplay:10.37,2013-01-05 01:42:00,
2013-01-04 17:45:00,50.1,6.9,30.16,ESE,106,0.0,3.5,17,0.00,CLR,FEW,0.00,0.0,WeatherDisplay:10.37,2013-01-05 01:45:00,
2013-01-04 17:47:00,49.9,6.7,30.16,ESE,108,3.3,9.2,17,0.00,CLR,FEW,0.00,0.0,WeatherDisplay:10.37,2013-01-05 01:47:00,
2013-01-04 17:52:00,50.1,5.6,30.16,ESE,120,2.0,8.1,16,0.00,CLR,FEW,0.00,0.0,WeatherDisplay:10.37,2013-01-05 01:52:00,
2013-01-04 17:53:00,50.1,5.6,30.16,SE,125,1.7,7.8,16,0.00,CLR,FEW,0.00,0.0,WeatherDisplay:10.37,2013-01-05 01:53:00,
2013-01-04 17:57:00,50.1,5.6,30.16,ESE,118,0.2,3.5,16,0.00,CLR,FEW,0.00,0.0,WeatherDisplay:10.37,2013-01-05 01:57:00,
2013-01-04 17:58:00,50.1,5.6,30.16,SE,129,5.2,9.2,16,0.00,CLR,FEW,0.00,0.0,WeatherDisplay:10.37,2013-01-05 01:58:00,
2013-01-04 18:02:00,49.8,5.3,30.16,ESE,114,1.7,11.5,16,0.00,CLR,FEW,0.00,0.0,WeatherDisplay:10.37,2013-01-05 02:02:00,
2013-01-04 18:03:00,49.6,5.2,30.16,ESE,113,0.2,2.3,16,0.00,CLR,FEW,0.00,0.0,WeatherDisplay:10.37,2013-01-05 02:03:00,
2013-01-04 18:04:00,49.6,5.2,30.16,ESE,121,0.1,1.1,16,0.00,CLR,FEW,0.00,0.0,WeatherDisplay:10.37,2013-01-05 02:04:00,
2013-01-04 18:05:00,49.6,5.2,30.16,ESE,118,1.0,0.0,16,0.00,CLR,FEW,0.00,0.0,WeatherDisplay:10.37,2013-01-05 02:05:00,
2013-01-04 18:07:00,49.5,5.1,30.16,ESE,120,3.5,10.4,16,0.00,CLR,FEW,0.00,0.0,WeatherDisplay:10.37,2013-01-05 02:07:00,
2013-01-04 18:09:00,49.4,5.0,30.16,ESE,113,6.4,9.2,16,0.00,CLR,FEW,0.00,0.0,WeatherDisplay:10.37,2013-01-05 02:09:00,
2013-01-04 18:10:00,49.4,5.0,30.16,East,101,5.9,16.1,16,0.00,CLR,FEW,0.00,0.0,WeatherDisplay:10.37,2013-01-05 02:10:00,
2013-01-04 18:14:00,49.4,5.0,30.16,ESE,121,3.0,6.9,16,0.00,CLR,FEW,0.00,0.0,WeatherDisplay:10.37,2013-01-05 02:14:00,
2013-01-04 18:15:00,49.2,4.8,30.17,East,92,4.4,10.4,16,0.00,CLR,FEW,0.00,0.0,WeatherDisplay:10.37,2013-01-05 02:15:00,
2013-01-04 18:16:00,49.2,4.8,30.17,ESE,109,4.8,10.4,16,0.00,CLR,FEW,0.00,0.0,WeatherDisplay:10.37,2013-01-05 02:16:00,
2013-01-04 18:19:00,49.1,4.8,30.17,East,94,3.5,10.4,16,0.00,CLR,FEW,0.00,0.0,WeatherDisplay:10.37,2013-01-05 02:19:00,
2013-01-04 18:20:00,49.1,4.8,30.17,ESE,118,4.1,10.4,16,0.00,CLR,FEW,0.00,0.0,WeatherDisplay:10.37,2013-01-05 02:20:00,
2013-01-04 18:21:00,48.9,4.6,30.17,ESE,105,5.0,10.4,16,0.00,CLR,FEW,0.00,0.0,WeatherDisplay:10.37,2013-01-05 02:21:00,
2013-01-04 18:26:00,48.8,4.5,30.17,ESE,117,5.9,10.4,16,0.00,CLR,FEW,0.00,0.0,WeatherDisplay:10.37,2013-01-05 02:26:00,
2013-01-04 18:27:00,48.8,4.5,30.17,East,101,8.5,10.4,16,0.00,CLR,FEW,0.00,0.0,WeatherDisplay:10.37,2013-01-05 02:27:00,
2013-01-04 18:31:00,48.6,4.3,30.17,East,94,5.3,10.4,16,0.00,CLR,FEW,0.00,0.0,WeatherDisplay:10.37,2013-01-05 02:31:00,
2013-01-04 18:32:00,48.6,4.3,30.17,SE,128,3.2,9.2,16,0.00,CLR,FEW,0.00,0.0,WeatherDisplay:10.37,2013-01-05 02:32:00,
2013-01-04 18:36:00,48.5,5.6,30.17,SE,130,2.2,9.2,17,0.00,CLR,FEW,0.00,0.0,WeatherDisplay:10.37,2013-01-05 02:36:00,
2013-01-04 18:37:00,48.5,5.6,30.17,SE,128,0.1,9.2,17,0.00,CLR,FEW,0.00,0.0,WeatherDisplay:10.37,2013-01-05 02:37:00,
2013-01-04 18:38:00,48.3,5.4,30.17,East,96,0.6,3.9,17,0.00,CLR,FEW,0.00,0.0,WeatherDisplay:10.37,2013-01-05 02:38:00,
2013-01-04 18:41:00,48.2,5.3,30.17,ESE,121,2.1,5.8,17,0.00,CLR,FEW,0.00,0.0,WeatherDisplay:10.37,2013-01-05 02:41:00,
2013-01-04 18:42:00,48.2,5.3,30.17,ESE,109,6.2,13.0,17,0.00,CLR,FEW,0.00,0.0,WeatherDisplay:10.37,2013-01-05 02:42:00,
2013-01-04 18:44:00,48.3,5.4,30.17,ESE,111,1.1,10.4,17,0.00,CLR,FEW,0.00,0.0,WeatherDisplay:10.37,2013-01-05 02:44:00,
2013-01-04 18:46:00,48.2,5.3,30.17,East,101,4.7,9.2,17,0.00,CLR,FEW,0.00,0.0,WeatherDisplay:10.37,2013-01-05 02:46:00,
2013-01-04 18:47:00,48.2,5.3,30.17,ESE,108,3.2,9.2,17,0.00,CLR,FEW,0.00,0.0,WeatherDisplay:10.37,2013-01-05 02:47:00,
2013-01-04 18:50:00,48.3,5.4,30.17,East,93,3.0,9.2,17,0.00,CLR,FEW,0.00,0.0,WeatherDisplay:10.37,2013-01-05 02:50:00,
2013-01-04 18:51:00,48.3,5.4,30.17,East,99,8.0,9.2,17,0.00,CLR,FEW,0.00,0.0,WeatherDisplay:10.37,2013-01-05 02:51:00,
2013-01-04 18:53:00,48.3,5.4,30.17,ESE,107,5.5,11.5,17,0.00,CLR,FEW,0.00,0.0,WeatherDisplay:10.37,2013-01-05 02:53:00,
2013-01-04 18:55:00,48.2,5.3,30.17,East,100,4.0,8.1,17,0.00,CLR,FEW,0.00,0.0,WeatherDisplay:10.37,2013-01-05 02:55:00,
2013-01-04 18:56:00,48.2,5.3,30.17,East,88,4.3,9.2,17,0.00,CLR,FEW,0.00,0.0,WeatherDisplay:10.37,2013-01-05 02:56:00,
2013-01-04 18:58:00,48.2,5.3,30.17,ESE,107,6.2,6.2,17,0.00,CLR,FEW,0.00,0.0,WeatherDisplay:10.37,2013-01-05 02:58:00,
2013-01-04 18:59:00,48.2,5.3,30.17,SE,128,6.4,0.0,17,0.00,CLR,FEW,0.00,0.0,WeatherDisplay:10.37,2013-01-05 02:59:00,
2013-01-04 19:01:00,48.2,4.0,30.17,ESE,114,5.4,11.5,16,0.00,CLR,FEW,0.00,0.0,WeatherDisplay:10.37,2013-01-05 03:01:00,
2013-01-04 19:03:00,48.2,5.3,30.17,ESE,123,2.9,6.9,17,0.00,CLR,FEW,0.00,0.0,WeatherDisplay:10.37,2013-01-05 03:03:00,
2013-01-04 19:05:00,48.0,3.9,30.17,ESE,114,5.7,10.4,16,0.00,CLR,FEW,0.00,0.0,WeatherDisplay:10.37,2013-01-05 03:05:00,
2013-01-04 19:06:00,48.0,3.9,30.17,ESE,107,7.4,10.4,16,0.00,CLR,FEW,0.00,0.0,WeatherDisplay:10.37,2013-01-05 03:06:00,
2013-01-04 19:08:00,48.0,3.9,30.17,SE,125,5.7,10.4,16,0.00,CLR,FEW,0.00,0.0,WeatherDisplay:10.37,2013-01-05 03:08:00,
2013-01-04 19:10:00,47.9,3.8,30.17,SE,130,6.1,12.7,16,0.00,CLR,FEW,0.00,0.0,WeatherDisplay:10.37,2013-01-05 03:10:00,
2013-01-04 19:13:00,47.9,3.8,30.17,ESE,103,4.8,11.5,16,0.00,CLR,FEW,0.00,0.0,WeatherDisplay:10.37,2013-01-05 03:13:00,
2013-01-04 19:14:00,47.9,5.1,30.17,East,100,5.5,11.7,17,0.00,CLR,FEW,0.00,0.0,WeatherDisplay:10.37,2013-01-05 03:14:00,
2013-01-04 19:15:00,47.9,3.8,30.17,ESE,107,8.4,11.5,16,0.00,CLR,FEW,0.00,0.0,WeatherDisplay:10.37,2013-01-05 03:15:00,
2013-01-04 19:18:00,47.9,3.8,30.17,ESE,115,3.7,10.4,16,0.00,CLR,FEW,0.00,0.0,WeatherDisplay:10.37,2013-01-05 03:18:00,
2013-01-04 19:19:00,47.9,3.8,30.17,East,93,5.9,10.4,16,0.00,CLR,FEW,0.00,0.0,WeatherDisplay:10.37,2013-01-05 03:19:00,
2013-01-04 19:20:00,47.9,3.8,30.17,East,81,5.1,12.7,16,0.00,CLR,FEW,0.00,0.0,WeatherDisplay:10.37,2013-01-05 03:20:00,
2013-01-04 19:23:00,47.9,3.8,30.17,ESE,115,11.7,16.1,16,0.00,CLR,FEW,0.00,0.0,WeatherDisplay:10.37,2013-01-05 03:23:00,
2013-01-04 19:25:00,48.0,3.9,30.17,East,98,9.5,16.1,16,0.00,CLR,FEW,0.00,0.0,WeatherDisplay:10.37,2013-01-05 03:25:00,
2013-01-04 19:28:00,48.0,3.9,30.17,East,92,11.2,14.3,16,0.00,CLR,FEW,0.00,0.0,WeatherDisplay:10.37,2013-01-05 03:28:00,
2013-01-04 19:30:00,48.0,3.9,30.18,East,94,6.4,14.3,16,0.00,CLR,FEW,0.00,0.0,WeatherDisplay:10.37,2013-01-05 03:30:00,
2013-01-04 19:32:00,48.0,3.9,30.18,ESE,121,8.2,11.7,16,0.00,CLR,FEW,0.00,0.0,WeatherDisplay:10.37,2013-01-05 03:32:00,
2013-01-04 19:33:00,48.0,3.9,30.18,ESE,109,11.6,12.7,16,0.00,CLR,FEW,0.00,0.0,WeatherDisplay:10.37,2013-01-05 03:33:00,
2013-01-04 19:36:00,48.0,3.9,30.18,East,91,4.0,10.4,16,0.00,CLR,FEW,0.00,0.0,WeatherDisplay:10.37,2013-01-05 03:36:00,
2013-01-04 19:38:00,48.0,3.9,30.18,East,89,10.1,13.8,16,0.00,CLR,FEW,0.00,0.0,WeatherDisplay:10.37,2013-01-05 03:38:00,
2013-01-04 19:41:00,48.0,3.9,30.18,ESE,118,8.3,13.8,16,0.00,CLR,FEW,0.00,0.0,WeatherDisplay:10.37,2013-01-05 03:41:00,
2013-01-04 19:43:00,47.9,2.4,30.18,SE,146,3.4,7.8,15,0.00,CLR,FEW,0.00,0.0,WeatherDisplay:10.37,2013-01-05 03:43:00,
2013-01-04 19:44:00,47.9,3.8,30.18,East,92,3.9,6.9,16,0.00,CLR,FEW,0.00,0.0,WeatherDisplay:10.37,2013-01-05 03:44:00,
2013-01-04 19:47:00,47.7,3.6,30.18,ESE,119,3.1,8.1,16,0.00,CLR,FEW,0.00,0.0,WeatherDisplay:10.37,2013-01-05 03:47:00,
2013-01-04 19:48:00,47.6,3.5,30.18,East,80,2.2,8.1,16,0.00,CLR,FEW,0.00,0.0,WeatherDisplay:10.37,2013-01-05 03:48:00,
2013-01-04 19:49:00,47.6,3.5,30.18,ESE,118,1.0,8.1,16,0.00,CLR,FEW,0.00,0.0,WeatherDisplay:10.37,2013-01-05 03:49:00,
2013-01-04 19:50:00,47.6,3.5,30.18,East,92,1.4,8.1,16,0.00,CLR,FEW,0.00,0.0,WeatherDisplay:10.37,2013-01-05 03:50:00,
2013-01-04 19:53:00,47.4,3.4,30.18,East,82,8.8,16.1,16,0.00,CLR,FEW,0.00,0.0,WeatherDisplay:10.37,2013-01-05 03:53:00,
2013-01-04 19:54:00,47.4,3.4,30.18,ESE,111,8.7,12.7,16,0.00,CLR,FEW,0.00,0.0,WeatherDisplay:10.37,2013-01-05 03:54:00,
2013-01-04 19:55:00,47.4,3.4,30.18,ESE,123,10.1,12.7,16,0.00,CLR,FEW,0.00,0.0,WeatherDisplay:10.37,2013-01-05 03:55:00,
2013-01-04 19:58:00,47.3,3.3,30.18,ESE,121,4.5,12.7,16,0.00,CLR,FEW,0.00,0.0,WeatherDisplay:10.37,2013-01-05 03:58:00,
2013-01-04 19:59:00,47.3,3.3,30.18,ESE,119,8.0,10.4,16,0.00,CLR,FEW,0.00,0.0,WeatherDisplay:10.37,2013-01-05 03:59:00,
2013-01-04 20:01:00,47.3,3.3,30.18,ESE,104,9.9,15.6,16,0.00,CLR,FEW,0.00,0.0,WeatherDisplay:10.37,2013-01-05 04:01:00,
2013-01-04 20:03:00,47.4,3.4,30.18,SE,129,10.7,11.5,16,0.00,CLR,FEW,0.00,0.0,WeatherDisplay:10.37,2013-01-05 04:03:00,
2013-01-04 20:04:00,47.3,3.3,30.18,East,96,8.9,9.2,16,0.00,CLR,FEW,0.00,0.0,WeatherDisplay:10.37,2013-01-05 04:04:00,
2013-01-04 20:08:00,47.3,3.3,30.18,SE,134,9.6,11.5,16,0.00,CLR,FEW,0.00,0.0,WeatherDisplay:10.37,2013-01-05 04:08:00,
2013-01-04 20:09:00,47.1,3.1,30.18,ESE,108,8.0,11.7,16,0.00,CLR,FEW,0.00,0.0,WeatherDisplay:10.37,2013-01-05 04:09:00,
2013-01-04 20:12:00,47.1,3.1,30.18,East,94,9.4,11.5,16,0.00,CLR,FEW,0.00,0.0,WeatherDisplay:10.37,2013-01-05 04:12:00,
2013-01-04 20:13:00,47.1,3.1,30.18,ESE,111,10.8,11.7,16,0.00,CLR,FEW,0.00,0.0,WeatherDisplay:10.37,2013-01-05 04:13:00,
2013-01-04 20:14:00,47.1,3.1,30.18,ESE,121,12.2,13.8,16,0.00,CLR,FEW,0.00,0.0,WeatherDisplay:10.37,2013-01-05 04:14:00,
2013-01-04 20:17:00,47.1,3.1,30.18,SE,130,8.1,10.4,16,0.00,CLR,FEW,0.00,0.0,WeatherDisplay:10.37,2013-01-05 04:17:00,
2013-01-04 20:18:00,47.1,3.1,30.18,SE,125,6.9,11.5,16,0.00,CLR,FEW,0.00,0.0,WeatherDisplay:10.37,2013-01-05 04:18:00,
2013-01-04 20:20:00,47.0,-1.4,30.18,ESE,110,9.8,12.7,13,0.00,CLR,FEW,0.00,0.0,WeatherDisplay:10.37,2013-01-05 04:20:00,
2013-01-04 20:21:00,47.0,3.0,30.18,ESE,103,2.5,12.7,16,0.00,CLR,FEW,0.00,0.0,WeatherDisplay:10.37,2013-01-05 04:21:00,
2013-01-04 20:23:00,46.8,2.9,30.18,ESE,109,5.4,10.4,16,0.00,CLR,FEW,0.00,0.0,WeatherDisplay:10.37,2013-01-05 04:23:00,
2013-01-04 20:26:00,46.8,4.2,30.18,ESE,115,8.5,12.7,17,0.00,CLR,FEW,0.00,0.0,WeatherDisplay:10.37,2013-01-05 04:26:00,
2013-01-04 20:27:00,46.8,2.9,30.18,ESE,120,11.0,12.7,16,0.00,CLR,FEW,0.00,0.0,WeatherDisplay:10.37,2013-01-05 04:27:00,
2013-01-04 20:28:00,46.8,2.9,30.18,ESE,113,8.7,12.7,16,0.00,CLR,FEW,0.00,0.0,WeatherDisplay:10.37,2013-01-05 04:28:00,
2013-01-04 20:29:00,46.8,2.9,30.18,East,101,6.4,12.7,16,0.00,CLR,FEW,0.00,0.0,WeatherDisplay:10.37,2013-01-05 04:29:00,
2013-01-04 20:31:00,46.8,2.9,30.18,SE,140,8.3,11.5,16,0.00,CLR,FEW,0.00,0.0,WeatherDisplay:10.37,2013-01-05 04:31:00,
2013-01-04 20:32:00,46.8,2.9,30.18,East,99,9.5,13.0,16,0.00,CLR,FEW,0.00,0.0,WeatherDisplay:10.37,2013-01-05 04:32:00,
2013-01-04 20:33:00,46.8,2.9,30.18,ESE,123,5.9,12.7,16,0.00,CLR,FEW,0.00,0.0,WeatherDisplay:10.37,2013-01-05 04:33:00,
2013-01-04 20:35:00,46.8,2.9,30.18,East,96,6.8,10.4,16,0.00,CLR,FEW,0.00,0.0,WeatherDisplay:10.37,2013-01-05 04:35:00,
2013-01-04 20:36:00,46.8,2.9,30.18,ESE,118,4.5,11.5,16,0.00,CLR,FEW,0.00,0.0,WeatherDisplay:10.37,2013-01-05 04:36:00,
2013-01-04 20:37:00,46.7,2.8,30.18,East,99,5.3,10.4,16,0.00,CLR,FEW,0.00,0.0,WeatherDisplay:10.37,2013-01-05 04:37:00,
2013-01-04 20:38:00,46.7,2.8,30.18,SE,126,4.2,11.5,16,0.00,CLR,FEW,0.00,0.0,WeatherDisplay:10.37,2013-01-05 04:38:00,
2013-01-04 20:40:00,46.5,2.6,30.18,ESE,117,6.3,11.5,16,0.00,CLR,FEW,0.00,0.0,WeatherDisplay:10.37,2013-01-05 04:40:00,
2013-01-04 20:42:00,46.5,2.6,30.18,ESE,117,4.7,12.7,16,0.00,CLR,FEW,0.00,0.0,WeatherDisplay:10.37,2013-01-05 04:42:00,
2013-01-04 20:43:00,46.5,2.6,30.18,East,99,7.0,10.4,16,0.00,CLR,FEW,0.00,0.0,WeatherDisplay:10.37,2013-01-05 04:43:00,
2013-01-04 20:45:00,46.5,2.6,30.18,East,100,5.8,9.2,16,0.00,CLR,FEW,0.00,0.0,WeatherDisplay:10.37,2013-01-05 04:45:00,
2013-01-04 20:47:00,46.5,2.6,30.18,ESE,119,3.7,9.2,16,0.00,CLR,FEW,0.00,0.0,WeatherDisplay:10.37,2013-01-05 04:47:00,
2013-01-04 20:48:00,46.5,2.6,30.18,SE,134,5.1,10.4,16,0.00,CLR,FEW,0.00,0.0,WeatherDisplay:10.37,2013-01-05 04:48:00,
2013-01-04 20:49:00,46.5,2.6,30.18,East,98,3.6,10.4,16,0.00,CLR,FEW,0.00,0.0,WeatherDisplay:10.37,2013-01-05 04:49:00,
2013-01-04 20:51:00,46.5,2.6,30.18,East,84,0.7,6.9,16,0.00,CLR,FEW,0.00,0.0,WeatherDisplay:10.37,2013-01-05 04:51:00,
2013-01-04 20:52:00,46.5,2.6,30.18,East,87,3.0,10.4,16,0.00,CLR,FEW,0.00,0.0,WeatherDisplay:10.37,2013-01-05 04:52:00,
2013-01-04 20:53:00,46.5,2.6,30.18,ESE,103,2.1,10.4,16,0.00,CLR,FEW,0.00,0.0,WeatherDisplay:10.37,2013-01-05 04:53:00,
2013-01-04 20:55:00,46.4,2.6,30.18,East,95,5.7,11.5,16,0.00,CLR,FEW,0.00,0.0,WeatherDisplay:10.37,2013-01-05 04:55:00,
2013-01-04 20:56:00,46.5,2.6,30.18,NE,56,4.9,10.4,16,0.00,CLR,FEW,0.00,0.0,WeatherDisplay:10.37,2013-01-05 04:56:00,
2013-01-04 20:58:00,46.4,2.6,30.18,East,97,5.1,8.1,16,0.00,CLR,FEW,0.00,0.0,WeatherDisplay:10.37,2013-01-05 04:58:00,
2013-01-04 20:59:00,46.5,2.6,30.18,ESE,109,4.7,9.2,16,0.00,CLR,FEW,0.00,0.0,WeatherDisplay:10.37,2013-01-05 04:59:00,
2013-01-04 21:00:00,46.5,2.6,30.19,ESE,123,3.1,9.2,16,0.00,CLR,FEW,0.00,0.0,WeatherDisplay:10.37,2013-01-05 05:00:00,
2013-01-04 21:01:00,46.5,2.6,30.19,ESE,107,1.9,8.1,16,0.00,CLR,FEW,0.00,0.0,WeatherDisplay:10.37,2013-01-05 05:01:00,
2013-01-04 21:05:00,46.4,2.6,30.19,ESE,104,2.3,8.1,16,0.00,CLR,FEW,0.00,0.0,WeatherDisplay:10.37,2013-01-05 05:05:00,
2013-01-04 21:06:00,46.4,2.6,30.19,East,96,3.3,8.1,16,0.00,CLR,FEW,0.00,0.0,WeatherDisplay:10.37,2013-01-05 05:06:00,
2013-01-04 21:07:00,46.4,2.6,30.19,ESE,117,3.9,8.1,16,0.00,CLR,FEW,0.00,0.0,WeatherDisplay:10.37,2013-01-05 05:07:00,
2013-01-04 21:10:00,46.2,2.4,30.19,ESE,108,0.0,0.0,16,0.00,CLR,FEW,0.00,0.0,WeatherDisplay:10.37,2013-01-05 05:10:00,
2013-01-04 21:11:00,46.2,2.4,30.19,East,99,0.4,0.0,16,0.00,CLR,FEW,0.00,0.0,WeatherDisplay:10.37,2013-01-05 05:11:00,
2013-01-04 21:12:00,46.2,2.4,30.19,East,100,0.0,3.5,16,0.00,CLR,FEW,0.00,0.0,WeatherDisplay:10.37,2013-01-05 05:12:00,
2013-01-04 21:13:00,46.2,2.4,30.19,ESE,107,1.5,6.9,16,0.00,CLR,FEW,0.00,0.0,WeatherDisplay:10.37,2013-01-05 05:13:00,
2013-01-04 21:15:00,46.2,2.4,30.20,East,88,0.9,2.3,16,0.00,CLR,FEW,0.00,0.0,WeatherDisplay:10.37,2013-01-05 05:15:00,
2013-01-04 21:17:00,46.1,3.6,30.20,ENE,64,0.0,0.0,17,0.00,CLR,FEW,0.00,0.0,WeatherDisplay:10.37,2013-01-05 05:17:00,
2013-01-04 21:20:00,46.1,2.3,30.20,East,89,0.0,0.0,16,0.00,CLR,FEW,0.00,0.0,WeatherDisplay:10.37,2013-01-05 05:20:00,
2013-01-04 21:21:00,46.1,2.3,30.20,ENE,72,0.0,0.0,16,0.00,CLR,FEW,0.00,0.0,WeatherDisplay:10.37,2013-01-05 05:21:00,
2013-01-04 21:22:00,46.1,2.3,30.20,ENE,69,0.0,0.0,16,0.00,CLR,FEW,0.00,0.0,WeatherDisplay:10.37,2013-01-05 05:22:00,
2013-01-04 21:25:00,46.2,2.4,30.20,East,79,1.9,9.2,16,0.00,CLR,FEW,0.00,0.0,WeatherDisplay:10.37,2013-01-05 05:25:00,
2013-01-04 21:27:00,46.2,2.4,30.20,ESE,112,0.9,3.5,16,0.00,CLR,FEW,0.00,0.0,WeatherDisplay:10.37,2013-01-05 05:27:00,
2013-01-04 21:30:00,47.0,1.6,30.20,ESE,111,2.6,10.4,15,0.00,CLR,FEW,0.00,0.0,WeatherDisplay:10.37,2013-01-05 05:30:00,
2013-01-04 21:32:00,47.0,3.0,30.20,East,96,2.3,10.4,16,0.00,CLR,FEW,0.00,0.0,WeatherDisplay:10.37,2013-01-05 05:32:00,
2013-01-04 21:33:00,47.0,3.0,30.20,East,96,0.7,6.9,16,0.00,CLR,FEW,0.00,0.0,WeatherDisplay:10.37,2013-01-05 05:33:00,
2013-01-04 21:34:00,46.8,2.9,30.20,ENE,69,1.4,6.9,16,0.00,CLR,FEW,0.00,0.0,WeatherDisplay:10.37,2013-01-05 05:34:00,
2013-01-04 21:36:00,46.8,2.9,30.20,East,96,0.0,0.0,16,0.00,CLR,FEW,0.00,0.0,WeatherDisplay:10.37,2013-01-05 05:36:00,
2013-01-04 21:37:00,46.7,2.8,30.20,NNE,31,0.0,0.0,16,0.00,CLR,FEW,0.00,0.0,WeatherDisplay:10.37,2013-01-05 05:37:00,
2013-01-04 21:38:00,46.7,2.8,30.20,East,82,0.0,0.0,16,0.00,CLR,FEW,0.00,0.0,WeatherDisplay:10.37,2013-01-05 05:38:00,
2013-01-04 21:39:00,46.5,2.6,30.20,NNE,24,0.0,0.0,16,0.00,CLR,FEW,0.00,0.0,WeatherDisplay:10.37,2013-01-05 05:39:00,
2013-01-04 21:41:00,46.2,2.4,30.20,ESE,114,0.0,0.0,16,0.00,CLR,FEW,0.00,0.0,WeatherDisplay:10.37,2013-01-05 05:41:00,
2013-01-04 21:43:00,46.2,3.7,30.20,East,94,0.0,0.0,17,0.00,CLR,FEW,0.00,0.0,WeatherDisplay:10.37,2013-01-05 05:43:00,
2013-01-04 21:44:00,46.0,4.8,30.21,ENE,69,0.0,0.0,18,0.00,CLR,FEW,0.00,0.0,WeatherDisplay:10.37,2013-01-05 05:44:00,
2013-01-04 21:47:00,45.8,3.4,30.21,East,100,0.0,0.0,17,0.00,CLR,FEW,0.00,0.0,WeatherDisplay:10.37,2013-01-05 05:47:00,
2013-01-04 21:48:00,45.8,3.4,30.21,East,100,0.0,0.0,17,0.00,CLR,FEW,0.00,0.0,WeatherDisplay:10.37,2013-01-05 05:48:00,
2013-01-04 21:50:00,45.8,3.4,30.21,East,99,0.0,0.0,17,0.00,CLR,FEW,0.00,0.0,WeatherDisplay:10.37,2013-01-05 05:50:00,
2013-01-04 21:52:00,46.0,3.5,30.21,ESE,106,2.4,8.1,17,0.00,CLR,FEW,0.00,0.0,WeatherDisplay:10.37,2013-01-05 05:52:00,
2013-01-04 21:53:00,46.1,2.3,30.21,ESE,104,0.0,0.0,16,0.00,CLR,FEW,0.00,0.0,WeatherDisplay:10.37,2013-01-05 05:53:00,
2013-01-04 21:54:00,46.1,2.3,30.21,East,90,0.0,0.0,16,0.00,CLR,FEW,0.00,0.0,WeatherDisplay:10.37,2013-01-05 05:54:00,
2013-01-04 21:57:00,46.1,2.3,30.21,ESE,117,0.0,0.0,16,0.00,CLR,FEW,0.00,0.0,WeatherDisplay:10.37,2013-01-05 05:57:00,
2013-01-04 21:58:00,46.1,2.3,30.21,SE,126,0.3,6.5,16,0.00,CLR,FEW,0.00,0.0,WeatherDisplay:10.37,2013-01-05 05:58:00,
2013-01-04 21:59:00,46.1,2.3,30.21,ESE,102,3.2,9.2,16,0.00,CLR,FEW,0.00,0.0,WeatherDisplay:10.37,2013-01-05 05:59:00,
2013-01-04 22:03:00,46.4,2.6,30.21,ESE,112,5.0,10.4,16,0.00,CLR,FEW,0.00,0.0,WeatherDisplay:10.37,2013-01-05 06:03:00,
2013-01-04 22:04:00,46.4,2.6,30.21,East,95,1.4,10.4,16,0.00,CLR,FEW,0.00,0.0,WeatherDisplay:10.37,2013-01-05 06:04:00,
2013-01-04 22:08:00,46.5,2.6,30.21,ESE,106,1.1,6.9,16,0.00,CLR,FEW,0.00,0.0,WeatherDisplay:10.37,2013-01-05 06:08:00,
2013-01-04 22:09:00,46.5,2.6,30.21,ESE,109,2.5,9.2,16,0.00,CLR,FEW,0.00,0.0,WeatherDisplay:10.37,2013-01-05 06:09:00,
2013-01-04 22:13:00,46.7,2.8,30.21,ESE,123,2.6,9.2,16,0.00,CLR,FEW,0.00,0.0,WeatherDisplay:10.37,2013-01-05 06:13:00,
2013-01-04 22:14:00,46.7,2.8,30.21,ESE,113,2.8,9.2,16,0.00,CLR,FEW,0.00,0.0,WeatherDisplay:10.37,2013-01-05 06:14:00,
2013-01-04 22:15:00,46.8,2.9,30.21,East,100,2.8,6.9,16,0.00,CLR,FEW,0.00,0.0,WeatherDisplay:10.37,2013-01-05 06:15:00,
2013-01-04 22:16:00,46.8,2.9,30.21,ESE,111,0.9,6.9,16,0.00,CLR,FEW,0.00,0.0,WeatherDisplay:10.37,2013-01-05 06:16:00,
2013-01-04 22:18:00,46.8,2.9,30.21,ESE,103,1.7,8.1,16,0.00,CLR,FEW,0.00,0.0,WeatherDisplay:10.37,2013-01-05 06:18:00,
2013-01-04 22:19:00,46.7,2.8,30.21,ESE,109,1.3,8.1,16,0.00,CLR,FEW,0.00,0.0,WeatherDisplay:10.37,2013-01-05 06:19:00,
2013-01-04 22:21:00,46.7,2.8,30.21,East,90,5.9,10.4,16,0.00,CLR,FEW,0.00,0.0,WeatherDisplay:10.37,2013-01-05 06:21:00,
2013-01-04 22:23:00,46.5,2.6,30.21,ESE,105,2.2,6.9,16,0.00,CLR,FEW,0.00,0.0,WeatherDisplay:10.37,2013-01-05 06:23:00,
2013-01-04 22:26:00,46.4,2.6,30.21,East,84,1.9,6.9,16,0.00,CLR,FEW,0.00,0.0,WeatherDisplay:10.37,2013-01-05 06:26:00,
2013-01-04 22:28:00,46.4,-0.3,30.21,East,92,5.2,8.1,14,0.00,CLR,FEW,0.00,0.0,WeatherDisplay:10.37,2013-01-05 06:28:00,
2013-01-04 22:30:00,46.4,2.6,30.20,East,98,3.5,9.2,16,0.00,CLR,FEW,0.00,0.0,WeatherDisplay:10.37,2013-01-05 06:30:00,
2013-01-04 22:31:00,46.2,2.4,30.20,East,90,2.4,2.4,16,0.00,CLR,FEW,0.00,0.0,WeatherDisplay:10.37,2013-01-05 06:31:00,
2013-01-04 22:32:00,46.2,2.4,30.20,ESE,109,2.4,8.1,16,0.00,CLR,FEW,0.00,0.0,WeatherDisplay:10.37,2013-01-05 06:32:00,
2013-01-04 22:33:00,46.2,3.7,30.20,East,80,1.0,6.9,17,0.00,CLR,FEW,0.00,0.0,WeatherDisplay:10.37,2013-01-05 06:33:00,
2013-01-04 22:37:00,46.2,2.4,30.20,ESE,107,1.7,6.9,16,0.00,CLR,FEW,0.00,0.0,WeatherDisplay:10.37,2013-01-05 06:37:00,
2013-01-04 22:38:00,46.2,3.7,30.20,East,93,1.4,6.9,17,0.00,CLR,FEW,0.00,0.0,WeatherDisplay:10.37,2013-01-05 06:38:00,
2013-01-04 22:42:00,46.1,3.6,30.20,ESE,109,1.4,8.1,17,0.00,CLR,FEW,0.00,0.0,WeatherDisplay:10.37,2013-01-05 06:42:00,
2013-01-04 22:43:00,46.1,3.6,30.20,SE,126,1.9,6.9,17,0.00,CLR,FEW,0.00,0.0,WeatherDisplay:10.37,2013-01-05 06:43:00,
2013-01-04 22:44:00,46.1,2.3,30.21,East,98,1.7,6.9,16,0.00,CLR,FEW,0.00,0.0,WeatherDisplay:10.37,2013-01-05 06:44:00,
2013-01-04 22:47:00,46.1,3.6,30.21,East,91,0.0,0.0,17,0.00,CLR,FEW,0.00,0.0,WeatherDisplay:10.37,2013-01-05 06:47:00,
2013-01-04 22:48:00,46.1,3.6,30.21,ENE,74,0.0,0.0,17,0.00,CLR,FEW,0.00,0.0,WeatherDisplay:10.37,2013-01-05 06:48:00,
2013-01-04 22:49:00,46.0,3.5,30.21,East,94,0.0,0.0,17,0.00,CLR,FEW,0.00,0.0,WeatherDisplay:10.37,2013-01-05 06:49:00,
2013-01-04 22:50:00,46.0,3.5,30.21,East,93,0.0,0.0,17,0.00,CLR,FEW,0.00,0.0,WeatherDisplay:10.37,2013-01-05 06:50:00,
2013-01-04 22:53:00,46.0,2.2,30.21,ESE,110,0.7,3.9,16,0.00,CLR,FEW,0.00,0.0,WeatherDisplay:10.37,2013-01-05 06:53:00,
2013-01-04 22:54:00,46.0,3.5,30.21,ESE,113,0.2,3.5,17,0.00,CLR,FEW,0.00,0.0,WeatherDisplay:10.37,2013-01-05 06:54:00,
2013-01-04 22:55:00,46.0,3.5,30.21,East,86,0.0,1.1,17,0.00,CLR,FEW,0.00,0.0,WeatherDisplay:10.37,2013-01-05 06:55:00,
2013-01-04 22:58:00,46.0,2.2,30.21,East,92,0.0,0.0,16,0.00,CLR,FEW,0.00,0.0,WeatherDisplay:10.37,2013-01-05 06:58:00,
2013-01-04 22:59:00,46.0,2.2,30.21,East,94,0.0,0.0,16,0.00,CLR,FEW,0.00,0.0,WeatherDisplay:10.37,2013-01-05 06:59:00,
2013-01-04 23:00:00,46.0,2.2,30.21,ENE,74,0.0,0.0,16,0.00,CLR,FEW,0.00,0.0,WeatherDisplay:10.37,2013-01-05 07:00:00,
2013-01-04 23:03:00,46.1,2.3,30.21,ESE,123,2.1,6.9,16,0.00,CLR,FEW,0.00,0.0,WeatherDisplay:10.37,2013-01-05 07:03:00,
2013-01-04 23:04:00,46.1,2.3,30.21,ESE,103,1.0,3.5,16,0.00,CLR,FEW,0.00,0.0,WeatherDisplay:10.37,2013-01-05 07:04:00,
2013-01-04 23:05:00,46.1,2.3,30.21,East,91,0.0,3.5,16,0.00,CLR,FEW,0.00,0.0,WeatherDisplay:10.37,2013-01-05 07:05:00,
2013-01-04 23:08:00,46.1,2.3,30.21,East,87,0.7,5.8,16,0.00,CLR,FEW,0.00,0.0,WeatherDisplay:10.37,2013-01-05 07:08:00,
2013-01-04 23:09:00,46.1,2.3,30.21,East,86,0.0,0.0,16,0.00,CLR,FEW,0.00,0.0,WeatherDisplay:10.37,2013-01-05 07:09:00,
2013-01-04 23:10:00,46.1,3.6,30.21,East,86,0.0,0.0,17,0.00,CLR,FEW,0.00,0.0,WeatherDisplay:10.37,2013-01-05 07:10:00,
2013-01-04 23:13:00,45.7,4.5,30.21,ENE,75,0.0,0.0,18,0.00,CLR,FEW,0.00,0.0,WeatherDisplay:10.37,2013-01-05 07:13:00,
2013-01-04 23:14:00,45.4,3.0,30.20,NE,51,0.0,0.0,17,0.00,CLR,FEW,0.00,0.0,WeatherDisplay:10.37,2013-01-05 07:14:00,
2013-01-04 23:15:00,45.4,4.3,30.20,SE,132,0.0,0.0,18,0.00,CLR,FEW,0.00,0.0,WeatherDisplay:10.37,2013-01-05 07:15:00,
2013-01-04 23:16:00,45.4,3.0,30.20,ESE,120,0.0,0.0,17,0.00,CLR,FEW,0.00,0.0,WeatherDisplay:10.37,2013-01-05 07:16:00,
2013-01-04 23:18:00,45.4,3.0,30.20,East,91,0.0,0.0,17,0.00,CLR,FEW,0.00,0.0,WeatherDisplay:10.37,2013-01-05 07:18:00,
2013-01-04 23:20:00,45.4,3.0,30.20,NE,40,0.0,0.0,17,0.00,CLR,FEW,0.00,0.0,WeatherDisplay:10.37,2013-01-05 07:20:00,
2013-01-04 23:21:00,45.4,3.0,30.20,East,84,0.0,0.0,17,0.00,CLR,FEW,0.00,0.0,WeatherDisplay:10.37,2013-01-05 07:21:00,
2013-01-04 23:23:00,45.2,2.9,30.20,ENE,68,0.0,0.0,17,0.00,CLR,FEW,0.00,0.0,WeatherDisplay:10.37,2013-01-05 07:23:00,
2013-01-04 23:26:00,45.1,2.8,30.20,ENE,71,0.0,0.0,17,0.00,CLR,FEW,0.00,0.0,WeatherDisplay:10.37,2013-01-05 07:26:00,
2013-01-04 23:27:00,45.1,2.8,30.20,ENE,78,0.0,0.0,17,0.00,CLR,FEW,0.00,0.0,WeatherDisplay:10.37,2013-01-05 07:27:00,
2013-01-04 23:28:00,45.1,4.0,30.20,ENE,72,0.0,0.0,18,0.00,CLR,FEW,0.00,0.0,WeatherDisplay:10.37,2013-01-05 07:28:00,
2013-01-04 23:31:00,45.1,4.0,30.20,SE,132,0.0,0.0,18,0.00,CLR,FEW,0.00,0.0,WeatherDisplay:10.37,2013-01-05 07:31:00,
2013-01-04 23:33:00,45.1,4.0,30.20,NE,53,0.0,0.0,18,0.00,CLR,FEW,0.00,0.0,WeatherDisplay:10.37,2013-01-05 07:33:00,
2013-01-04 23:35:00,45.4,3.0,30.20,East,90,2.6,6.9,17,0.00,CLR,FEW,0.00,0.0,WeatherDisplay:10.37,2013-01-05 07:35:00,
2013-01-04 23:37:00,45.7,3.3,30.20,East,88,5.1,10.4,17,0.00,CLR,FEW,0.00,0.0,WeatherDisplay:10.37,2013-01-05 07:37:00,
2013-01-04 23:38:00,46.0,3.5,30.20,ENE,67,0.2,0.0,17,0.00,CLR,FEW,0.00,0.0,WeatherDisplay:10.37,2013-01-05 07:38:00,
2013-01-04 23:40:00,45.7,5.7,30.20,NE,44,0.0,1.1,19,0.00,CLR,FEW,0.00,0.0,WeatherDisplay:10.37,2013-01-05 07:40:00,
2013-01-04 23:42:00,45.1,5.2,30.20,NNE,30,0.0,0.0,19,0.00,CLR,FEW,0.00,0.0,WeatherDisplay:10.37,2013-01-05 07:42:00,
2013-01-04 23:43:00,44.9,5.1,30.20,NNE,31,0.0,0.0,19,0.00,CLR,FEW,0.00,0.0,WeatherDisplay:10.37,2013-01-05 07:43:00,
2013-01-04 23:44:00,44.8,5.0,30.20,NNE,31,0.0,0.0,19,0.00,CLR,FEW,0.00,0.0,WeatherDisplay:10.37,2013-01-05 07:44:00,
2013-01-04 23:45:00,44.5,4.7,30.20,NE,34,0.0,0.0,19,0.00,CLR,FEW,0.00,0.0,WeatherDisplay:10.37,2013-01-05 07:45:00,
2013-01-04 23:47:00,44.3,3.4,30.20,ENE,69,0.0,0.0,18,0.00,CLR,FEW,0.00,0.0,WeatherDisplay:10.37,2013-01-05 07:47:00,
2013-01-04 23:49:00,44.5,3.5,30.20,ENE,69,0.0,0.0,18,0.00,CLR,FEW,0.00,0.0,WeatherDisplay:10.37,2013-01-05 07:49:00,
2013-01-04 23:50:00,44.6,3.6,30.20,ENE,63,0.0,0.0,18,0.00,CLR,FEW,0.00,0.0,WeatherDisplay:10.37,2013-01-05 07:50:00,
2013-01-04 23:51:00,44.6,3.6,30.20,ENE,59,0.0,0.0,18,0.00,CLR,FEW,0.00,0.0,WeatherDisplay:10.37,2013-01-05 07:51:00,
2013-01-04 23:53:00,44.8,3.8,30.20,ESE,113,0.0,0.0,18,0.00,CLR,FEW,0.00,0.0,WeatherDisplay:10.37,2013-01-05 07:53:00,
2013-01-04 23:54:00,44.8,3.8,30.20,SE,130,0.0,0.0,18,0.00,CLR,FEW,0.00,0.0,WeatherDisplay:10.37,2013-01-05 07:54:00,
2013-01-04 23:55:00,44.8,3.8,30.20,East,92,0.0,0.0,18,0.00,CLR,FEW,0.00,0.0,WeatherDisplay:10.37,2013-01-05 07:55:00,
2013-01-04 23:56:00,44.8,3.8,30.20,ENE,77,0.0,0.0,18,0.00,CLR,FEW,0.00,0.0,WeatherDisplay:10.37,2013-01-05 07:56:00,
2013-01-04 23:59:00,44.8,3.8,30.20,ESE,113,1.4,8.1,18,0.00,CLR,FEW,0.00,0.0,WeatherDisplay:10.37,2013-01-05 07:59:00,